Time,TemperatureF,DewpointF,PressureIn,WindDirection,WindDirectionDegrees,WindSpeedMPH,WindSpeedGustMPH,Humidity,HourlyPrecipIn,Conditions,Clouds,dailyrainin,SoftwareType,DateUTC
2013-01-28 00:00:00,45.0,32.1,30.22,South,180,3.6,8.7,60,0.00,,,0.00,WUHU216HW,2013-01-28 05:00:00,
2013-01-28 00:01:00,45.0,32.1,30.22,SSE,158,4.5,8.7,60,0.00,,,0.00,WUHU216HW,2013-01-28 05:01:00,
2013-01-28 00:04:00,45.0,32.1,30.23,South,180,3.8,8.7,60,0.00,,,0.00,WUHU216HW,2013-01-28 05:04:00,
2013-01-28 00:05:00,45.0,32.1,30.23,WSW,254,1.3,8.7,60,0.00,,,0.00,WUHU216HW,2013-01-28 05:05:00,
2013-01-28 00:07:00,45.0,32.1,30.24,SSW,203,3.4,8.7,60,0.00,,,0.00,WUHU216HW,2013-01-28 05:07:00,
2013-01-28 00:09:00,45.0,32.4,30.24,SE,135,3.8,4.5,61,0.00,,,0.00,WUHU216HW,2013-01-28 05:09:00,
2013-01-28 00:11:00,45.0,32.4,30.24,SSW,203,3.2,4.0,61,0.00,,,0.00,WUHU216HW,2013-01-28 05:11:00,
2013-01-28 00:12:00,44.8,32.2,30.24,South,180,4.0,4.0,61,0.00,,,0.00,WUHU216HW,2013-01-28 05:12:00,
2013-01-28 00:13:00,44.8,32.2,30.24,SSW,203,7.2,7.2,61,0.00,,,0.00,WUHU216HW,2013-01-28 05:13:00,
2013-01-28 00:15:00,44.8,32.2,30.24,South,183,3.3,7.2,61,0.00,,,0.00,WUHU216HW,2013-01-28 05:15:00,
2013-01-28 00:16:00,44.8,32.2,30.23,SSW,203,5.4,7.2,61,0.00,,,0.00,WUHU216HW,2013-01-28 05:16:00,
2013-01-28 00:17:00,44.8,32.2,30.24,SSW,192,4.9,7.2,61,0.00,,,0.00,WUHU216HW,2013-01-28 05:17:00,
2013-01-28 00:18:00,44.8,32.2,30.24,SSW,203,6.3,7.2,61,0.00,,,0.00,WUHU216HW,2013-01-28 05:18:00,
2013-01-28 00:21:00,44.8,32.2,30.23,SSW,207,9.4,11.2,61,0.00,,,0.00,WUHU216HW,2013-01-28 05:21:00,
2013-01-28 00:22:00,44.8,32.2,30.23,SSW,207,9.4,11.2,61,0.00,,,0.00,WUHU216HW,2013-01-28 05:22:00,
2013-01-28 00:23:00,44.8,32.2,30.23,SSW,203,7.6,11.2,61,0.00,,,0.00,WUHU216HW,2013-01-28 05:23:00,
2013-01-28 00:24:00,44.8,32.2,30.23,SSW,210,5.6,11.2,61,0.00,,,0.00,WUHU216HW,2013-01-28 05:24:00,
2013-01-28 00:27:00,44.8,32.2,30.23,SSW,200,5.3,11.2,61,0.00,,,0.00,WUHU216HW,2013-01-28 05:27:00,
2013-01-28 00:28:00,45.0,32.4,30.23,SSE,151,2.9,11.2,61,0.00,,,0.00,WUHU216HW,2013-01-28 05:28:00,
2013-01-28 00:30:00,44.8,32.2,30.23,SSW,195,2.7,11.2,61,0.00,,,0.00,WUHU216HW,2013-01-28 05:30:00,
2013-01-28 00:33:00,45.0,32.4,30.23,South,175,5.2,6.5,61,0.00,,,0.00,WUHU216HW,2013-01-28 05:33:00,
2013-01-28 00:35:00,45.0,32.4,30.23,SSE,165,6.9,9.4,61,0.00,,,0.00,WUHU216HW,2013-01-28 05:35:00,
2013-01-28 00:38:00,45.2,32.1,30.23,South,181,4.3,9.4,60,0.00,,,0.00,WUHU216HW,2013-01-28 05:38:00,
2013-01-28 00:39:00,45.2,32.1,30.23,SE,135,4.0,9.4,60,0.00,,,0.00,WUHU216HW,2013-01-28 05:39:00,
2013-01-28 00:41:00,45.2,32.1,30.23,South,185,6.1,9.4,60,0.00,,,0.00,WUHU216HW,2013-01-28 05:41:00,
2013-01-28 00:44:00,45.4,32.3,30.24,SE,135,5.4,7.4,60,0.00,,,0.00,WUHU216HW,2013-01-28 05:44:00,
2013-01-28 00:46:00,45.4,32.3,30.24,SSE,158,4.0,7.4,60,0.00,,,0.00,WUHU216HW,2013-01-28 05:46:00,
2013-01-28 00:49:00,45.4,32.3,30.24,South,182,3.2,8.1,60,0.00,,,0.00,WUHU216HW,2013-01-28 05:49:00,
2013-01-28 00:51:00,45.4,32.3,30.24,South,181,3.5,8.1,60,0.00,,,0.00,WUHU216HW,2013-01-28 05:51:00,
2013-01-28 00:52:00,45.5,32.5,30.24,SW,225,6.3,8.1,60,0.00,,,0.00,WUHU216HW,2013-01-28 05:52:00,
2013-01-28 00:54:00,45.5,32.5,30.25,SSE,158,4.7,8.1,60,0.00,,,0.00,WUHU216HW,2013-01-28 05:54:00,
2013-01-28 00:55:00,45.5,32.5,30.25,SSE,158,4.5,8.1,60,0.00,,,0.00,WUHU216HW,2013-01-28 05:55:00,
2013-01-28 00:57:00,45.5,32.5,30.25,South,183,3.2,6.3,60,0.00,,,0.00,WUHU216HW,2013-01-28 05:57:00,
2013-01-28 01:00:00,45.5,32.5,30.25,SSW,208,4.7,6.3,60,0.00,,,0.00,WUHU216HW,2013-01-28 06:00:00,
2013-01-28 01:02:00,45.4,32.3,30.25,SSE,158,3.6,5.8,60,0.00,,,0.00,WUHU216HW,2013-01-28 06:02:00,
2013-01-28 01:03:00,45.4,32.3,30.25,SSE,165,2.8,5.8,60,0.00,,,0.00,WUHU216HW,2013-01-28 06:03:00,
2013-01-28 01:05:00,45.4,32.3,30.25,WSW,248,3.4,5.8,60,0.00,,,0.00,WUHU216HW,2013-01-28 06:05:00,
2013-01-28 01:06:00,45.2,32.1,30.25,SSW,203,3.4,5.8,60,0.00,,,0.00,WUHU216HW,2013-01-28 06:06:00,
2013-01-28 01:08:00,45.2,32.1,30.25,SW,225,4.7,5.8,60,0.00,,,0.00,WUHU216HW,2013-01-28 06:08:00,
2013-01-28 01:10:00,45.0,32.1,30.24,SSE,158,3.6,4.7,60,0.00,,,0.00,WUHU216HW,2013-01-28 06:10:00,
2013-01-28 01:11:00,45.0,32.1,30.24,SSE,158,3.6,4.7,60,0.00,,,0.00,WUHU216HW,2013-01-28 06:11:00,
2013-01-28 01:13:00,45.0,32.1,30.24,South,180,4.0,4.7,60,0.00,,,0.00,WUHU216HW,2013-01-28 06:13:00,
2013-01-28 01:14:00,44.8,31.9,30.24,South,170,3.7,4.7,60,0.00,,,0.00,WUHU216HW,2013-01-28 06:14:00,
2013-01-28 01:16:00,44.8,32.2,30.24,SSW,199,6.6,7.8,61,0.00,,,0.00,WUHU216HW,2013-01-28 06:16:00,
2013-01-28 01:17:00,44.8,32.2,30.24,SW,233,4.4,7.8,61,0.00,,,0.00,WUHU216HW,2013-01-28 06:17:00,
2013-01-28 01:18:00,44.8,32.2,30.24,SSE,167,3.1,7.8,61,0.00,,,0.00,WUHU216HW,2013-01-28 06:18:00,
2013-01-28 01:19:00,44.8,32.2,30.24,SSE,158,4.3,7.8,61,0.00,,,0.00,WUHU216HW,2013-01-28 06:19:00,
2013-01-28 01:21:00,44.6,32.0,30.24,SSW,203,4.5,7.8,61,0.00,,,0.00,WUHU216HW,2013-01-28 06:21:00,
2013-01-28 01:22:00,44.6,32.0,30.24,South,180,6.9,7.8,61,0.00,,,0.00,WUHU216HW,2013-01-28 06:22:00,
2013-01-28 01:23:00,44.6,32.0,30.24,SSW,200,6.2,7.8,61,0.00,,,0.00,WUHU216HW,2013-01-28 06:23:00,
2013-01-28 01:25:00,44.6,32.0,30.24,SSW,203,5.1,6.9,61,0.00,,,0.00,WUHU216HW,2013-01-28 06:25:00,
2013-01-28 01:26:00,44.6,32.0,30.24,South,185,4.3,6.9,61,0.00,,,0.00,WUHU216HW,2013-01-28 06:26:00,
2013-01-28 01:27:00,44.6,32.0,30.24,South,173,2.6,6.9,61,0.00,,,0.00,WUHU216HW,2013-01-28 06:27:00,
2013-01-28 01:29:00,44.6,32.0,30.24,SW,225,2.5,6.9,61,0.00,,,0.00,WUHU216HW,2013-01-28 06:29:00,
2013-01-28 01:30:00,44.6,32.0,30.24,SSE,158,4.9,6.9,61,0.00,,,0.00,WUHU216HW,2013-01-28 06:30:00,
2013-01-28 01:32:00,44.6,32.0,30.24,SSW,209,4.3,5.4,61,0.00,,,0.00,WUHU216HW,2013-01-28 06:32:00,
2013-01-28 01:33:00,44.6,32.0,30.24,WNW,292,2.8,5.1,61,0.00,,,0.00,WUHU216HW,2013-01-28 06:33:00,
2013-01-28 01:35:00,44.6,32.0,30.24,SSW,203,5.6,5.6,61,0.00,,,0.00,WUHU216HW,2013-01-28 06:35:00,
2013-01-28 01:37:00,44.6,32.0,30.24,SSE,158,5.4,5.6,61,0.00,,,0.00,WUHU216HW,2013-01-28 06:37:00,
2013-01-28 01:39:00,44.6,32.0,30.24,SW,225,4.7,5.6,61,0.00,,,0.00,WUHU216HW,2013-01-28 06:39:00,
2013-01-28 01:41:00,44.5,31.9,30.24,WSW,248,3.4,5.6,61,0.00,,,0.00,WUHU216HW,2013-01-28 06:41:00,
2013-01-28 01:42:00,44.5,31.9,30.24,SSW,203,4.0,5.6,61,0.00,,,0.00,WUHU216HW,2013-01-28 06:42:00,
2013-01-28 01:44:00,44.5,31.9,30.24,South,180,2.7,5.6,61,0.00,,,0.00,WUHU216HW,2013-01-28 06:44:00,
2013-01-28 01:46:00,44.5,31.9,30.24,South,180,2.7,5.4,61,0.00,,,0.00,WUHU216HW,2013-01-28 06:46:00,
2013-01-28 01:47:00,44.5,31.9,30.24,South,180,2.3,4.7,61,0.00,,,0.00,WUHU216HW,2013-01-28 06:47:00,
2013-01-28 01:49:00,44.5,31.9,30.24,South,190,1.5,4.0,61,0.00,,,0.00,WUHU216HW,2013-01-28 06:49:00,
2013-01-28 01:51:00,44.3,32.0,30.24,SSE,158,7.4,7.4,62,0.00,,,0.00,WUHU216HW,2013-01-28 06:51:00,
2013-01-28 01:52:00,44.3,32.0,30.24,SSE,158,6.4,7.4,62,0.00,,,0.00,WUHU216HW,2013-01-28 06:52:00,
2013-01-28 01:54:00,44.3,32.0,30.25,SW,221,1.5,7.4,62,0.00,,,0.00,WUHU216HW,2013-01-28 06:54:00,
2013-01-28 01:56:00,44.3,32.0,30.25,NW,308,0.8,7.4,62,0.00,,,0.00,WUHU216HW,2013-01-28 06:56:00,
2013-01-28 01:57:00,44.3,32.0,30.25,SSW,203,5.1,7.4,62,0.00,,,0.00,WUHU216HW,2013-01-28 06:57:00,
2013-01-28 01:59:00,44.3,32.0,30.25,WSW,248,1.8,7.4,62,0.00,,,0.00,WUHU216HW,2013-01-28 06:59:00,
2013-01-28 02:00:00,44.3,32.0,30.25,South,180,2.5,7.4,62,0.00,,,0.00,WUHU216HW,2013-01-28 07:00:00,
2013-01-28 02:02:00,44.1,32.0,30.25,South,180,6.5,6.5,62,0.00,,,0.00,WUHU216HW,2013-01-28 07:02:00,
2013-01-28 02:05:00,44.1,32.0,30.25,South,180,6.7,6.7,62,0.00,,,0.00,WUHU216HW,2013-01-28 07:05:00,
2013-01-28 02:06:00,43.9,31.8,30.25,South,186,4.4,6.7,62,0.00,,,0.00,WUHU216HW,2013-01-28 07:06:00,
2013-01-28 02:07:00,44.1,32.3,30.25,SSW,203,5.6,6.7,63,0.00,,,0.00,WUHU216HW,2013-01-28 07:07:00,
2013-01-28 02:08:00,44.1,32.0,30.25,SSW,208,3.7,6.7,62,0.00,,,0.00,WUHU216HW,2013-01-28 07:08:00,
2013-01-28 02:11:00,44.1,32.3,30.25,East,97,1.6,6.7,63,0.00,,,0.00,WUHU216HW,2013-01-28 07:11:00,
2013-01-28 02:12:00,44.1,32.3,30.25,SE,135,2.5,6.7,63,0.00,,,0.00,WUHU216HW,2013-01-28 07:12:00,
2013-01-28 02:13:00,44.1,32.3,30.25,SSW,203,4.3,6.7,63,0.00,,,0.00,WUHU216HW,2013-01-28 07:13:00,
2013-01-28 02:17:00,43.9,32.1,30.25,SSE,158,4.5,4.5,63,0.00,,,0.00,WUHU216HW,2013-01-28 07:17:00,
2013-01-28 02:18:00,43.7,32.0,30.25,SSE,158,3.5,4.5,63,0.00,,,0.00,WUHU216HW,2013-01-28 07:18:00,
2013-01-28 02:22:00,43.7,32.0,30.25,South,180,10.7,10.7,63,0.00,,,0.00,WUHU216HW,2013-01-28 07:22:00,
2013-01-28 02:23:00,43.7,32.0,30.24,South,187,7.7,10.7,63,0.00,,,0.00,WUHU216HW,2013-01-28 07:23:00,
2013-01-28 02:24:00,43.7,32.0,30.25,SSW,192,4.3,10.7,63,0.00,,,0.00,WUHU216HW,2013-01-28 07:24:00,
2013-01-28 02:28:00,43.9,32.1,30.24,SSE,158,4.7,10.7,63,0.00,,,0.00,WUHU216HW,2013-01-28 07:28:00,
2013-01-28 02:30:00,43.9,32.1,30.24,SSW,203,4.5,10.7,63,0.00,,,0.00,WUHU216HW,2013-01-28 07:30:00,
2013-01-28 02:33:00,44.3,32.5,30.24,SSW,193,4.3,6.9,63,0.00,,,0.00,WUHU216HW,2013-01-28 07:33:00,
2013-01-28 02:34:00,44.3,32.5,30.24,South,180,3.5,6.9,63,0.00,,,0.00,WUHU216HW,2013-01-28 07:34:00,
2013-01-28 02:36:00,44.3,32.5,30.24,SSE,158,4.9,6.9,63,0.00,,,0.00,WUHU216HW,2013-01-28 07:36:00,
2013-01-28 02:39:00,44.3,32.5,30.24,SSW,203,3.4,6.9,63,0.00,,,0.00,WUHU216HW,2013-01-28 07:39:00,
2013-01-28 02:41:00,44.3,32.5,30.24,South,180,2.7,5.1,63,0.00,,,0.00,WUHU216HW,2013-01-28 07:41:00,
2013-01-28 02:44:00,44.3,32.5,30.24,SSE,158,5.6,5.6,63,0.00,,,0.00,WUHU216HW,2013-01-28 07:44:00,
2013-01-28 02:45:00,44.5,32.7,30.24,South,180,6.3,6.3,63,0.00,,,0.00,WUHU216HW,2013-01-28 07:45:00,
2013-01-28 02:46:00,44.5,32.7,30.24,South,172,4.9,6.3,63,0.00,,,0.00,WUHU216HW,2013-01-28 07:46:00,
2013-01-28 02:49:00,44.5,32.7,30.23,SSE,158,7.4,7.4,63,0.00,,,0.00,WUHU216HW,2013-01-28 07:49:00,
2013-01-28 02:50:00,44.5,32.7,30.23,SSE,165,5.5,7.4,63,0.00,,,0.00,WUHU216HW,2013-01-28 07:50:00,
2013-01-28 02:51:00,44.5,32.7,30.23,SSE,164,2.8,7.4,63,0.00,,,0.00,WUHU216HW,2013-01-28 07:51:00,
2013-01-28 02:54:00,44.5,32.7,30.23,SSW,196,5.7,7.4,63,0.00,,,0.00,WUHU216HW,2013-01-28 07:54:00,
2013-01-28 02:55:00,44.5,32.7,30.23,South,170,4.6,7.4,63,0.00,,,0.00,WUHU216HW,2013-01-28 07:55:00,
2013-01-28 02:56:00,44.5,32.7,30.23,South,180,4.0,7.4,63,0.00,,,0.00,WUHU216HW,2013-01-28 07:56:00,
2013-01-28 02:57:00,44.6,32.9,30.23,SSE,162,3.3,7.4,63,0.00,,,0.00,WUHU216HW,2013-01-28 07:57:00,
2013-01-28 03:00:00,44.6,32.4,30.23,SE,144,7.5,8.7,62,0.00,,,0.00,WUHU216HW,2013-01-28 08:00:00,
2013-01-28 03:01:00,44.6,32.4,30.23,South,173,4.9,8.7,62,0.00,,,0.00,WUHU216HW,2013-01-28 08:01:00,
2013-01-28 03:02:00,44.6,32.4,30.23,SSE,158,6.5,8.7,62,0.00,,,0.00,WUHU216HW,2013-01-28 08:02:00,
2013-01-28 03:05:00,44.6,32.4,30.22,SSE,158,5.8,9.4,62,0.00,,,0.00,WUHU216HW,2013-01-28 08:05:00,
2013-01-28 03:06:00,44.8,32.6,30.22,SSE,158,13.6,13.6,62,0.00,,,0.00,WUHU216HW,2013-01-28 08:06:00,
2013-01-28 03:07:00,44.8,32.6,30.22,South,175,11.1,13.6,62,0.00,,,0.00,WUHU216HW,2013-01-28 08:07:00,
2013-01-28 03:10:00,45.0,32.4,30.23,SW,217,10.2,13.6,61,0.00,,,0.00,WUHU216HW,2013-01-28 08:10:00,
2013-01-28 03:11:00,45.0,32.4,30.23,South,171,6.1,13.6,61,0.00,,,0.00,WUHU216HW,2013-01-28 08:11:00,
2013-01-28 03:13:00,45.2,32.6,30.23,SSE,158,3.8,13.6,61,0.00,,,0.00,WUHU216HW,2013-01-28 08:13:00,
2013-01-28 03:14:00,45.2,32.6,30.23,SSE,158,3.4,13.6,61,0.00,,,0.00,WUHU216HW,2013-01-28 08:14:00,
2013-01-28 03:16:00,45.2,32.6,30.23,SSE,158,5.4,12.8,61,0.00,,,0.00,WUHU216HW,2013-01-28 08:16:00,
2013-01-28 03:18:00,45.2,32.6,30.23,SW,225,3.1,12.8,61,0.00,,,0.00,WUHU216HW,2013-01-28 08:18:00,
2013-01-28 03:19:00,45.2,32.6,30.23,SSW,203,7.6,7.6,61,0.00,,,0.00,WUHU216HW,2013-01-28 08:19:00,
2013-01-28 03:22:00,45.2,32.6,30.24,West,270,4.3,7.6,61,0.00,,,0.00,WUHU216HW,2013-01-28 08:22:00,
2013-01-28 03:23:00,45.4,32.7,30.24,SSW,203,4.9,7.6,61,0.00,,,0.00,WUHU216HW,2013-01-28 08:23:00,
2013-01-28 03:25:00,45.4,32.7,30.24,SSE,158,4.5,7.6,61,0.00,,,0.00,WUHU216HW,2013-01-28 08:25:00,
2013-01-28 03:27:00,45.4,32.7,30.23,SSW,203,5.4,7.6,61,0.00,,,0.00,WUHU216HW,2013-01-28 08:27:00,
2013-01-28 03:28:00,45.2,32.6,30.23,South,190,3.2,5.8,61,0.00,,,0.00,WUHU216HW,2013-01-28 08:28:00,
2013-01-28 03:29:00,45.2,32.6,30.23,South,190,3.2,5.8,61,0.00,,,0.00,WUHU216HW,2013-01-28 08:29:00,
2013-01-28 03:30:00,45.2,32.6,30.23,SW,225,3.1,5.4,61,0.00,,,0.00,WUHU216HW,2013-01-28 08:30:00,
2013-01-28 03:32:00,45.2,32.6,30.23,SSW,203,2.7,5.4,61,0.00,,,0.00,WUHU216HW,2013-01-28 08:32:00,
2013-01-28 03:34:00,45.2,32.6,30.23,SW,217,1.0,5.4,61,0.00,,,0.00,WUHU216HW,2013-01-28 08:34:00,
2013-01-28 03:36:00,45.2,32.6,30.23,SSE,158,2.0,3.6,61,0.00,,,0.00,WUHU216HW,2013-01-28 08:36:00,
2013-01-28 03:37:00,45.2,32.6,30.23,SSE,158,2.0,3.6,61,0.00,,,0.00,WUHU216HW,2013-01-28 08:37:00,
2013-01-28 03:39:00,45.0,32.4,30.23,SSE,158,2.5,3.4,61,0.00,,,0.00,WUHU216HW,2013-01-28 08:39:00,
2013-01-28 03:42:00,45.0,32.8,30.23,SE,135,4.0,4.0,62,0.00,,,0.00,WUHU216HW,2013-01-28 08:42:00,
2013-01-28 03:43:00,45.0,32.8,30.23,SSE,157,3.9,4.0,62,0.00,,,0.00,WUHU216HW,2013-01-28 08:43:00,
2013-01-28 03:44:00,45.0,32.8,30.23,South,188,3.0,4.0,62,0.00,,,0.00,WUHU216HW,2013-01-28 08:44:00,
2013-01-28 03:48:00,45.0,32.8,30.23,SSW,203,3.8,4.7,62,0.00,,,0.00,WUHU216HW,2013-01-28 08:48:00,
2013-01-28 03:49:00,45.0,32.8,30.23,SSW,203,2.0,4.7,62,0.00,,,0.00,WUHU216HW,2013-01-28 08:49:00,
2013-01-28 03:51:00,45.0,32.8,30.23,South,173,2.5,4.7,62,0.00,,,0.00,WUHU216HW,2013-01-28 08:51:00,
2013-01-28 03:53:00,45.0,32.8,30.23,SSW,203,3.9,4.7,62,0.00,,,0.00,WUHU216HW,2013-01-28 08:53:00,
2013-01-28 03:54:00,45.0,32.8,30.23,SSW,203,2.4,4.7,62,0.00,,,0.00,WUHU216HW,2013-01-28 08:54:00,
2013-01-28 03:55:00,45.0,32.8,30.23,SSW,203,2.2,4.7,62,0.00,,,0.00,WUHU216HW,2013-01-28 08:55:00,
2013-01-28 03:57:00,44.8,32.2,30.23,South,180,4.7,4.7,61,0.00,,,0.00,WUHU216HW,2013-01-28 08:57:00,
2013-01-28 03:58:00,45.0,32.8,30.23,South,188,3.6,4.7,62,0.00,,,0.00,WUHU216HW,2013-01-28 08:58:00,
2013-01-28 04:00:00,44.8,32.6,30.23,South,180,5.1,5.1,62,0.00,,,0.00,WUHU216HW,2013-01-28 09:00:00,
2013-01-28 04:01:00,45.0,32.8,30.23,South,180,5.4,5.4,62,0.00,,,0.00,WUHU216HW,2013-01-28 09:01:00,
2013-01-28 04:02:00,44.8,32.6,30.23,South,189,3.5,5.4,62,0.00,,,0.00,WUHU216HW,2013-01-28 09:02:00,
2013-01-28 04:03:00,44.8,32.6,30.23,South,189,4.6,5.4,62,0.00,,,0.00,WUHU216HW,2013-01-28 09:03:00,
2013-01-28 04:05:00,44.8,32.6,30.23,SE,135,4.3,5.4,62,0.00,,,0.00,WUHU216HW,2013-01-28 09:05:00,
2013-01-28 04:06:00,44.8,32.6,30.23,SE,135,4.3,5.4,62,0.00,,,0.00,WUHU216HW,2013-01-28 09:06:00,
2013-01-28 04:07:00,44.8,32.6,30.23,SE,144,2.7,5.4,62,0.00,,,0.00,WUHU216HW,2013-01-28 09:07:00,
2013-01-28 04:09:00,44.8,32.6,30.23,South,180,3.4,5.4,62,0.00,,,0.00,WUHU216HW,2013-01-28 09:09:00,
2013-01-28 04:11:00,44.8,32.6,30.23,SE,135,3.6,4.9,62,0.00,,,0.00,WUHU216HW,2013-01-28 09:11:00,
2013-01-28 04:13:00,44.8,32.6,30.23,SSE,158,3.6,4.3,62,0.00,,,0.00,WUHU216HW,2013-01-28 09:13:00,
2013-01-28 04:14:00,44.8,32.6,30.23,SSE,165,2.7,4.3,62,0.00,,,0.00,WUHU216HW,2013-01-28 09:14:00,
2013-01-28 04:16:00,44.8,32.6,30.23,SE,135,2.2,3.6,62,0.00,,,0.00,WUHU216HW,2013-01-28 09:16:00,
2013-01-28 04:17:00,44.8,32.6,30.23,SE,135,2.2,3.6,62,0.00,,,0.00,WUHU216HW,2013-01-28 09:17:00,
2013-01-28 04:18:00,44.8,32.6,30.23,SSE,158,3.4,3.6,62,0.00,,,0.00,WUHU216HW,2013-01-28 09:18:00,
2013-01-28 04:19:00,44.8,32.6,30.23,SSE,168,3.2,3.6,62,0.00,,,0.00,WUHU216HW,2013-01-28 09:19:00,
2013-01-28 04:22:00,44.8,32.6,30.23,SSE,167,4.9,5.8,62,0.00,,,0.00,WUHU216HW,2013-01-28 09:22:00,
2013-01-28 04:23:00,44.8,32.6,30.23,South,180,5.4,5.8,62,0.00,,,0.00,WUHU216HW,2013-01-28 09:23:00,
2013-01-28 04:24:00,44.8,32.6,30.23,South,189,4.4,5.8,62,0.00,,,0.00,WUHU216HW,2013-01-28 09:24:00,
2013-01-28 04:27:00,44.8,32.6,30.22,SW,217,2.8,5.8,62,0.00,,,0.00,WUHU216HW,2013-01-28 09:27:00,
2013-01-28 04:28:00,44.8,32.6,30.22,South,180,5.4,5.8,62,0.00,,,0.00,WUHU216HW,2013-01-28 09:28:00,
2013-01-28 04:29:00,45.0,32.8,30.22,South,180,4.3,5.8,62,0.00,,,0.00,WUHU216HW,2013-01-28 09:29:00,
2013-01-28 04:30:00,44.8,32.6,30.23,SE,135,5.4,5.8,62,0.00,,,0.00,WUHU216HW,2013-01-28 09:30:00,
2013-01-28 04:32:00,45.0,32.8,30.22,South,180,3.0,5.4,62,0.00,,,0.00,WUHU216HW,2013-01-28 09:32:00,
2013-01-28 04:33:00,45.0,32.8,30.22,SSE,158,7.6,7.6,62,0.00,,,0.00,WUHU216HW,2013-01-28 09:33:00,
2013-01-28 04:34:00,45.0,32.8,30.22,SSE,158,7.6,7.6,62,0.00,,,0.00,WUHU216HW,2013-01-28 09:34:00,
2013-01-28 04:35:00,44.8,32.6,30.22,South,174,4.9,7.6,62,0.00,,,0.00,WUHU216HW,2013-01-28 09:35:00,
2013-01-28 04:38:00,45.0,32.8,30.23,SW,234,3.3,7.6,62,0.00,,,0.00,WUHU216HW,2013-01-28 09:38:00,
2013-01-28 04:39:00,45.0,32.8,30.23,South,180,3.4,7.6,62,0.00,,,0.00,WUHU216HW,2013-01-28 09:39:00,
2013-01-28 04:40:00,45.0,32.8,30.23,SSE,165,2.3,7.6,62,0.00,,,0.00,WUHU216HW,2013-01-28 09:40:00,
2013-01-28 04:43:00,45.0,32.8,30.23,SSE,164,1.8,7.6,62,0.00,,,0.00,WUHU216HW,2013-01-28 09:43:00,
2013-01-28 04:44:00,45.0,32.8,30.23,SE,135,2.9,4.5,62,0.00,,,0.00,WUHU216HW,2013-01-28 09:44:00,
2013-01-28 04:46:00,45.0,32.8,30.23,SSW,203,3.2,4.5,62,0.00,,,0.00,WUHU216HW,2013-01-28 09:46:00,
2013-01-28 04:48:00,45.0,32.8,30.23,South,180,2.9,4.0,62,0.00,,,0.00,WUHU216HW,2013-01-28 09:48:00,
2013-01-28 04:50:00,45.0,32.8,30.23,SSW,203,3.6,4.0,62,0.00,,,0.00,WUHU216HW,2013-01-28 09:50:00,
2013-01-28 04:52:00,45.0,32.8,30.23,SW,225,0.7,4.0,62,0.00,,,0.00,WUHU216HW,2013-01-28 09:52:00,
2013-01-28 04:54:00,45.0,32.8,30.23,SSW,203,2.5,4.0,62,0.00,,,0.00,WUHU216HW,2013-01-28 09:54:00,
2013-01-28 04:55:00,45.0,32.8,30.23,SSW,203,3.4,4.0,62,0.00,,,0.00,WUHU216HW,2013-01-28 09:55:00,
2013-01-28 04:57:00,45.0,32.8,30.23,South,180,4.7,4.7,62,0.00,,,0.00,WUHU216HW,2013-01-28 09:57:00,
2013-01-28 04:58:00,44.8,32.6,30.23,South,191,4.5,4.7,62,0.00,,,0.00,WUHU216HW,2013-01-28 09:58:00,
2013-01-28 04:59:00,44.8,32.6,30.23,SSW,203,3.7,4.7,62,0.00,,,0.00,WUHU216HW,2013-01-28 09:59:00,
2013-01-28 05:00:00,44.8,32.6,30.23,SSE,158,3.6,4.7,62,0.00,,,0.00,WUHU216HW,2013-01-28 10:00:00,
2013-01-28 05:03:00,45.0,32.8,30.23,South,178,3.3,4.7,62,0.00,,,0.00,WUHU216HW,2013-01-28 10:03:00,
2013-01-28 05:04:00,45.0,32.8,30.23,South,180,2.9,4.7,62,0.00,,,0.00,WUHU216HW,2013-01-28 10:04:00,
2013-01-28 05:05:00,45.0,32.8,30.23,South,191,2.8,4.7,62,0.00,,,0.00,WUHU216HW,2013-01-28 10:05:00,
2013-01-28 05:08:00,45.0,32.8,30.23,SW,223,2.4,4.3,62,0.00,,,0.00,WUHU216HW,2013-01-28 10:08:00,
2013-01-28 05:09:00,45.0,32.8,30.23,West,270,2.0,4.3,62,0.00,,,0.00,WUHU216HW,2013-01-28 10:09:00,
2013-01-28 05:10:00,45.0,32.8,30.23,South,180,4.7,4.7,62,0.00,,,0.00,WUHU216HW,2013-01-28 10:10:00,
2013-01-28 05:14:00,45.0,32.8,30.23,SSW,203,3.1,4.7,62,0.00,,,0.00,WUHU216HW,2013-01-28 10:14:00,
2013-01-28 05:15:00,45.0,33.1,30.23,South,188,2.3,4.7,63,0.00,,,0.00,WUHU216HW,2013-01-28 10:15:00,
2013-01-28 05:16:00,45.0,33.1,30.23,South,180,1.8,4.7,63,0.00,,,0.00,WUHU216HW,2013-01-28 10:16:00,
2013-01-28 05:19:00,45.0,33.1,30.23,South,187,4.7,6.3,63,0.00,,,0.00,WUHU216HW,2013-01-28 10:19:00,
2013-01-28 05:20:00,45.0,33.1,30.23,South,187,4.7,6.3,63,0.00,,,0.00,WUHU216HW,2013-01-28 10:20:00,
2013-01-28 05:22:00,45.0,33.1,30.23,SSW,203,2.7,6.3,63,0.00,,,0.00,WUHU216HW,2013-01-28 10:22:00,
2013-01-28 05:23:00,45.0,33.1,30.23,South,180,3.8,6.3,63,0.00,,,0.00,WUHU216HW,2013-01-28 10:23:00,
2013-01-28 05:25:00,45.0,33.1,30.23,SSW,197,3.3,6.3,63,0.00,,,0.00,WUHU216HW,2013-01-28 10:25:00,
2013-01-28 05:27:00,45.0,33.1,30.23,SW,225,4.9,6.3,63,0.00,,,0.00,WUHU216HW,2013-01-28 10:27:00,
2013-01-28 05:28:00,45.0,33.1,30.24,SW,227,2.7,6.3,63,0.00,,,0.00,WUHU216HW,2013-01-28 10:28:00,
2013-01-28 05:30:00,45.0,33.1,30.24,ESE,113,2.0,4.9,63,0.00,,,0.00,WUHU216HW,2013-01-28 10:30:00,
2013-01-28 05:32:00,45.0,33.1,30.24,SW,225,1.6,4.9,63,0.00,,,0.00,WUHU216HW,2013-01-28 10:32:00,
2013-01-28 05:34:00,45.0,33.1,30.24,SSW,198,5.8,6.9,63,0.00,,,0.00,WUHU216HW,2013-01-28 10:34:00,
2013-01-28 05:35:00,45.0,32.8,30.24,SSE,168,4.3,6.9,62,0.00,,,0.00,WUHU216HW,2013-01-28 10:35:00,
2013-01-28 05:36:00,45.0,32.8,30.24,SSE,168,2.8,6.9,62,0.00,,,0.00,WUHU216HW,2013-01-28 10:36:00,
2013-01-28 05:37:00,45.0,32.8,30.23,SSE,158,2.7,6.9,62,0.00,,,0.00,WUHU216HW,2013-01-28 10:37:00,
2013-01-28 05:40:00,45.0,33.1,30.24,SSW,211,3.7,6.9,63,0.00,,,0.00,WUHU216HW,2013-01-28 10:40:00,
2013-01-28 05:41:00,45.0,33.1,30.24,SW,234,2.3,6.9,63,0.00,,,0.00,WUHU216HW,2013-01-28 10:41:00,
2013-01-28 05:42:00,45.0,33.1,30.24,South,180,1.8,6.9,63,0.00,,,0.00,WUHU216HW,2013-01-28 10:42:00,
2013-01-28 05:45:00,45.0,33.1,30.24,South,190,2.7,4.5,63,0.00,,,0.00,WUHU216HW,2013-01-28 10:45:00,
2013-01-28 05:46:00,45.0,33.1,30.24,SSW,203,1.8,4.5,63,0.00,,,0.00,WUHU216HW,2013-01-28 10:46:00,
2013-01-28 05:47:00,44.8,32.9,30.24,SE,135,4.7,4.7,63,0.00,,,0.00,WUHU216HW,2013-01-28 10:47:00,
2013-01-28 05:51:00,44.8,32.9,30.23,SSE,158,3.8,5.1,63,0.00,,,0.00,WUHU216HW,2013-01-28 10:51:00,
2013-01-28 05:54:00,44.8,32.9,30.23,SSW,203,2.5,5.1,63,0.00,,,0.00,WUHU216HW,2013-01-28 10:54:00,
2013-01-28 05:56:00,45.0,33.1,30.23,WSW,248,3.6,5.1,63,0.00,,,0.00,WUHU216HW,2013-01-28 10:56:00,
2013-01-28 05:59:00,44.8,32.9,30.23,SSW,203,3.4,3.8,63,0.00,,,0.00,WUHU216HW,2013-01-28 10:59:00,
2013-01-28 06:01:00,44.8,32.9,30.23,SSE,159,3.3,3.6,63,0.00,,,0.00,WUHU216HW,2013-01-28 11:01:00,
2013-01-28 06:02:00,44.8,32.9,30.23,SSE,151,2.4,3.6,63,0.00,,,0.00,WUHU216HW,2013-01-28 11:02:00,
2013-01-28 06:04:00,44.8,32.9,30.23,SSW,195,1.3,3.6,63,0.00,,,0.00,WUHU216HW,2013-01-28 11:04:00,
2013-01-28 06:05:00,44.8,32.9,30.24,SSE,158,2.2,3.6,63,0.00,,,0.00,WUHU216HW,2013-01-28 11:05:00,
2013-01-28 06:07:00,44.8,32.9,30.23,SSE,165,1.3,3.4,63,0.00,,,0.00,WUHU216HW,2013-01-28 11:07:00,
2013-01-28 06:08:00,44.8,32.9,30.23,SSE,158,1.1,3.4,63,0.00,,,0.00,WUHU216HW,2013-01-28 11:08:00,
2013-01-28 06:09:00,44.8,32.9,30.23,South,180,2.7,3.4,63,0.00,,,0.00,WUHU216HW,2013-01-28 11:09:00,
2013-01-28 06:10:00,44.8,32.9,30.23,South,180,2.2,3.4,63,0.00,,,0.00,WUHU216HW,2013-01-28 11:10:00,
2013-01-28 06:12:00,44.8,32.9,30.23,SE,135,1.8,2.7,63,0.00,,,0.00,WUHU216HW,2013-01-28 11:12:00,
2013-01-28 06:13:00,44.8,32.9,30.23,SE,146,1.7,2.7,63,0.00,,,0.00,WUHU216HW,2013-01-28 11:13:00,
2013-01-28 06:14:00,44.8,32.9,30.23,SSE,158,2.5,2.7,63,0.00,,,0.00,WUHU216HW,2013-01-28 11:14:00,
2013-01-28 06:16:00,44.8,32.9,30.23,SE,135,5.1,5.1,63,0.00,,,0.00,WUHU216HW,2013-01-28 11:16:00,
2013-01-28 06:18:00,44.8,32.9,30.23,SE,135,2.5,5.1,63,0.00,,,0.00,WUHU216HW,2013-01-28 11:18:00,
2013-01-28 06:20:00,44.8,32.9,30.23,SSE,158,2.2,5.1,63,0.00,,,0.00,WUHU216HW,2013-01-28 11:20:00,
2013-01-28 06:22:00,44.8,32.9,30.23,SSE,151,1.7,5.1,63,0.00,,,0.00,WUHU216HW,2013-01-28 11:22:00,
2013-01-28 06:23:00,44.8,32.9,30.23,SSE,158,1.8,5.1,63,0.00,,,0.00,WUHU216HW,2013-01-28 11:23:00,
2013-01-28 06:24:00,44.8,32.9,30.23,SSE,167,1.5,5.1,63,0.00,,,0.00,WUHU216HW,2013-01-28 11:24:00,
2013-01-28 06:25:00,44.8,32.9,30.23,SSE,158,2.5,5.1,63,0.00,,,0.00,WUHU216HW,2013-01-28 11:25:00,
2013-01-28 06:27:00,44.8,32.9,30.23,SSE,160,2.5,2.7,63,0.00,,,0.00,WUHU216HW,2013-01-28 11:27:00,
2013-01-28 06:29:00,44.8,32.9,30.23,SSW,195,1.7,2.7,63,0.00,,,0.00,WUHU216HW,2013-01-28 11:29:00,
2013-01-28 06:31:00,44.8,32.9,30.23,SSE,147,1.9,2.7,63,0.00,,,0.00,WUHU216HW,2013-01-28 11:31:00,
2013-01-28 06:32:00,44.8,32.9,30.23,SSE,165,1.3,2.7,63,0.00,,,0.00,WUHU216HW,2013-01-28 11:32:00,
2013-01-28 06:34:00,44.8,32.9,30.23,SSE,158,2.5,3.4,63,0.00,,,0.00,WUHU216HW,2013-01-28 11:34:00,
2013-01-28 06:36:00,44.8,32.9,30.23,South,180,1.8,3.4,63,0.00,,,0.00,WUHU216HW,2013-01-28 11:36:00,
2013-01-28 06:37:00,44.8,32.9,30.23,SE,135,3.4,3.4,63,0.00,,,0.00,WUHU216HW,2013-01-28 11:37:00,
2013-01-28 06:39:00,44.8,33.4,30.23,SSW,203,4.7,4.7,64,0.00,,,0.00,WUHU216HW,2013-01-28 11:39:00,
2013-01-28 06:40:00,44.8,33.4,30.23,SSW,195,3.4,4.7,64,0.00,,,0.00,WUHU216HW,2013-01-28 11:40:00,
2013-01-28 06:41:00,44.8,33.4,30.23,South,180,3.4,4.7,64,0.00,,,0.00,WUHU216HW,2013-01-28 11:41:00,
2013-01-28 06:43:00,44.8,33.4,30.23,SSE,158,3.6,4.7,64,0.00,,,0.00,WUHU216HW,2013-01-28 11:43:00,
2013-01-28 06:44:00,44.8,33.4,30.23,SSE,166,2.9,4.7,64,0.00,,,0.00,WUHU216HW,2013-01-28 11:44:00,
2013-01-28 06:45:00,44.8,33.4,30.23,South,172,1.8,4.7,64,0.00,,,0.00,WUHU216HW,2013-01-28 11:45:00,
2013-01-28 06:47:00,44.8,33.4,30.24,SE,128,1.3,4.7,64,0.00,,,0.00,WUHU216HW,2013-01-28 11:47:00,
2013-01-28 06:48:00,44.8,33.4,30.24,SE,135,2.9,4.7,64,0.00,,,0.00,WUHU216HW,2013-01-28 11:48:00,
2013-01-28 06:49:00,44.8,33.4,30.24,SSE,158,2.9,3.6,64,0.00,,,0.00,WUHU216HW,2013-01-28 11:49:00,
2013-01-28 06:51:00,44.8,33.4,30.24,SSE,149,1.5,3.6,64,0.00,,,0.00,WUHU216HW,2013-01-28 11:51:00,
2013-01-28 06:52:00,45.0,33.6,30.24,SE,135,5.6,5.6,64,0.00,,,0.00,WUHU216HW,2013-01-28 11:52:00,
2013-01-28 06:54:00,44.8,33.4,30.24,SW,225,3.8,5.6,64,0.00,,,0.00,WUHU216HW,2013-01-28 11:54:00,
2013-01-28 06:56:00,45.0,33.6,30.24,SSE,158,4.1,5.6,64,0.00,,,0.00,WUHU216HW,2013-01-28 11:56:00,
2013-01-28 06:57:00,45.0,33.6,30.24,SE,135,3.6,5.6,64,0.00,,,0.00,WUHU216HW,2013-01-28 11:57:00,
2013-01-28 06:59:00,45.0,33.6,30.24,SE,135,3.6,5.6,64,0.00,,,0.00,WUHU216HW,2013-01-28 11:59:00,
2013-01-28 07:00:00,45.0,33.6,30.24,South,180,4.7,5.6,64,0.00,,,0.00,WUHU216HW,2013-01-28 12:00:00,
2013-01-28 07:01:00,45.0,33.6,30.24,South,171,3.9,5.6,64,0.00,,,0.00,WUHU216HW,2013-01-28 12:01:00,
2013-01-28 07:03:00,45.0,33.6,30.23,SE,135,2.0,5.6,64,0.00,,,0.00,WUHU216HW,2013-01-28 12:03:00,
2013-01-28 07:04:00,45.0,33.9,30.23,SSE,158,4.0,5.6,65,0.00,,,0.00,WUHU216HW,2013-01-28 12:04:00,
2013-01-28 07:05:00,45.0,33.6,30.24,SSE,158,3.0,4.7,64,0.00,,,0.00,WUHU216HW,2013-01-28 12:05:00,
2013-01-28 07:06:00,45.0,33.9,30.24,SE,135,5.4,5.4,65,0.00,,,0.00,WUHU216HW,2013-01-28 12:06:00,
2013-01-28 07:09:00,45.0,33.9,30.24,SE,135,3.4,5.4,65,0.00,,,0.00,WUHU216HW,2013-01-28 12:09:00,
2013-01-28 07:10:00,45.0,33.9,30.24,SSE,158,6.3,6.3,65,0.00,,,0.00,WUHU216HW,2013-01-28 12:10:00,
2013-01-28 07:11:00,45.0,33.9,30.24,SSE,158,6.3,6.3,65,0.00,,,0.00,WUHU216HW,2013-01-28 12:11:00,
2013-01-28 07:12:00,45.0,33.9,30.24,SSE,149,5.2,6.3,65,0.00,,,0.00,WUHU216HW,2013-01-28 12:12:00,
2013-01-28 07:14:00,45.0,33.9,30.24,SE,135,4.0,6.3,65,0.00,,,0.00,WUHU216HW,2013-01-28 12:14:00,
2013-01-28 07:16:00,45.0,33.9,30.24,SE,135,2.9,6.3,65,0.00,,,0.00,WUHU216HW,2013-01-28 12:16:00,
2013-01-28 07:17:00,45.0,33.9,30.24,SE,135,3.4,6.3,65,0.00,,,0.00,WUHU216HW,2013-01-28 12:17:00,
2013-01-28 07:20:00,45.0,33.9,30.24,South,178,2.9,6.3,65,0.00,,,0.00,WUHU216HW,2013-01-28 12:20:00,
2013-01-28 07:21:00,45.0,33.9,30.24,South,180,2.9,4.0,65,0.00,,,0.00,WUHU216HW,2013-01-28 12:21:00,
2013-01-28 07:23:00,45.0,33.9,30.24,SE,145,3.6,5.6,65,0.00,,,0.00,WUHU216HW,2013-01-28 12:23:00,
2013-01-28 07:25:00,45.0,33.9,30.24,SW,225,4.3,5.6,65,0.00,,,0.00,WUHU216HW,2013-01-28 12:25:00,
2013-01-28 07:26:00,45.0,33.9,30.24,South,180,5.8,5.8,65,0.00,,,0.00,WUHU216HW,2013-01-28 12:26:00,
2013-01-28 07:28:00,45.0,33.9,30.24,SSW,193,4.5,5.8,65,0.00,,,0.00,WUHU216HW,2013-01-28 12:28:00,
2013-01-28 07:30:00,45.0,33.9,30.24,South,180,3.5,5.8,65,0.00,,,0.00,WUHU216HW,2013-01-28 12:30:00,
2013-01-28 07:32:00,45.0,34.3,30.24,SE,135,4.0,5.8,66,0.00,,,0.00,WUHU216HW,2013-01-28 12:32:00,
2013-01-28 07:33:00,45.0,34.3,30.24,SSE,158,5.6,5.8,66,0.00,,,0.00,WUHU216HW,2013-01-28 12:33:00,
2013-01-28 07:35:00,45.0,34.3,30.24,South,180,3.1,5.8,66,0.00,,,0.00,WUHU216HW,2013-01-28 12:35:00,
2013-01-28 07:37:00,45.0,34.3,30.24,South,180,4.3,5.6,66,0.00,,,0.00,WUHU216HW,2013-01-28 12:37:00,
2013-01-28 07:39:00,45.0,34.3,30.24,SSE,158,4.0,5.6,66,0.00,,,0.00,WUHU216HW,2013-01-28 12:39:00,
2013-01-28 07:41:00,45.0,34.3,30.24,SSE,158,7.6,7.6,66,0.00,,,0.00,WUHU216HW,2013-01-28 12:41:00,
2013-01-28 07:42:00,45.0,34.7,30.24,South,171,4.1,7.6,67,0.00,,,0.00,WUHU216HW,2013-01-28 12:42:00,
2013-01-28 07:44:00,45.0,34.7,30.24,SE,133,5.1,7.6,67,0.00,,,0.00,WUHU216HW,2013-01-28 12:44:00,
2013-01-28 07:45:00,45.0,34.7,30.24,SSE,148,4.1,7.6,67,0.00,,,0.00,WUHU216HW,2013-01-28 12:45:00,
2013-01-28 07:47:00,45.0,34.7,30.24,SSE,147,8.1,8.5,67,0.00,,,0.00,WUHU216HW,2013-01-28 12:47:00,
2013-01-28 07:49:00,45.0,34.7,30.24,ESE,113,6.0,8.5,67,0.00,,,0.00,WUHU216HW,2013-01-28 12:49:00,
2013-01-28 07:51:00,45.0,34.7,30.24,SE,132,5.3,8.5,67,0.00,,,0.00,WUHU216HW,2013-01-28 12:51:00,
2013-01-28 07:52:00,45.0,34.7,30.24,WSW,248,4.7,8.5,67,0.00,,,0.00,WUHU216HW,2013-01-28 12:52:00,
2013-01-28 07:53:00,45.0,34.7,30.24,WSW,248,4.7,8.5,67,0.00,,,0.00,WUHU216HW,2013-01-28 12:53:00,
2013-01-28 07:55:00,45.0,34.7,30.24,SSE,161,3.2,8.5,67,0.00,,,0.00,WUHU216HW,2013-01-28 12:55:00,
2013-01-28 07:57:00,45.0,34.7,30.24,SSE,167,3.2,6.0,67,0.00,,,0.00,WUHU216HW,2013-01-28 12:57:00,
2013-01-28 07:58:00,45.0,34.7,30.24,South,180,1.9,6.0,67,0.00,,,0.00,WUHU216HW,2013-01-28 12:58:00,
2013-01-28 08:00:00,45.0,34.7,30.24,SSE,158,1.8,5.4,67,0.00,,,0.00,WUHU216HW,2013-01-28 13:00:00,
2013-01-28 08:02:00,45.0,34.7,30.24,SE,137,2.0,5.4,67,0.00,,,0.00,WUHU216HW,2013-01-28 13:02:00,
2013-01-28 08:03:00,45.2,34.8,30.24,ESE,113,2.5,3.8,67,0.00,,,0.00,WUHU216HW,2013-01-28 13:03:00,
2013-01-28 08:04:00,45.2,35.2,30.24,ESE,123,2.3,3.6,68,0.00,,,0.00,WUHU216HW,2013-01-28 13:04:00,
2013-01-28 08:06:00,45.2,35.2,30.24,SSE,158,3.8,3.8,68,0.00,,,0.00,WUHU216HW,2013-01-28 13:06:00,
2013-01-28 08:07:00,45.2,35.2,30.25,SE,135,4.0,4.0,68,0.00,,,0.00,WUHU216HW,2013-01-28 13:07:00,
2013-01-28 08:08:00,45.0,35.1,30.25,SSE,166,3.7,4.0,68,0.00,,,0.00,WUHU216HW,2013-01-28 13:08:00,
2013-01-28 08:11:00,45.2,35.2,30.24,SSE,158,2.8,4.0,68,0.00,,,0.00,WUHU216HW,2013-01-28 13:11:00,
2013-01-28 08:13:00,45.2,35.2,30.24,SSE,158,3.4,4.0,68,0.00,,,0.00,WUHU216HW,2013-01-28 13:13:00,
2013-01-28 08:14:00,45.2,35.2,30.24,South,174,2.7,4.0,68,0.00,,,0.00,WUHU216HW,2013-01-28 13:14:00,
2013-01-28 08:17:00,45.2,35.2,30.25,SSW,212,3.7,4.3,68,0.00,,,0.00,WUHU216HW,2013-01-28 13:17:00,
2013-01-28 08:18:00,45.4,35.4,30.25,South,180,7.4,7.4,68,0.00,,,0.00,WUHU216HW,2013-01-28 13:18:00,
2013-01-28 08:19:00,45.4,35.4,30.25,South,180,7.1,7.4,68,0.00,,,0.00,WUHU216HW,2013-01-28 13:19:00,
2013-01-28 08:22:00,45.4,35.4,30.24,SSE,163,4.9,7.4,68,0.00,,,0.00,WUHU216HW,2013-01-28 13:22:00,
2013-01-28 08:23:00,45.4,35.4,30.24,SE,135,4.5,7.4,68,0.00,,,0.00,WUHU216HW,2013-01-28 13:23:00,
2013-01-28 08:24:00,45.4,35.4,30.24,South,189,4.4,7.4,68,0.00,,,0.00,WUHU216HW,2013-01-28 13:24:00,
2013-01-28 08:28:00,45.4,35.4,30.25,South,180,9.4,9.4,68,0.00,,,0.00,WUHU216HW,2013-01-28 13:28:00,
2013-01-28 08:30:00,45.4,35.4,30.25,South,191,6.5,9.4,68,0.00,,,0.00,WUHU216HW,2013-01-28 13:30:00,
2013-01-28 08:33:00,45.4,35.4,30.25,ESE,113,7.2,9.4,68,0.00,,,0.00,WUHU216HW,2013-01-28 13:33:00,
2013-01-28 08:34:00,45.5,35.6,30.25,SE,132,6.4,9.4,68,0.00,,,0.00,WUHU216HW,2013-01-28 13:34:00,
2013-01-28 08:35:00,45.4,35.4,30.24,SSE,167,4.9,9.4,68,0.00,,,0.00,WUHU216HW,2013-01-28 13:35:00,
2013-01-28 08:39:00,45.5,36.0,30.24,SE,135,2.7,7.2,69,0.00,,,0.00,WUHU216HW,2013-01-28 13:39:00,
2013-01-28 08:40:00,45.4,35.8,30.25,ESE,113,3.8,7.2,69,0.00,,,0.00,WUHU216HW,2013-01-28 13:40:00,
2013-01-28 08:41:00,45.4,35.8,30.25,ESE,113,3.8,7.2,69,0.00,,,0.00,WUHU216HW,2013-01-28 13:41:00,
2013-01-28 08:44:00,45.5,36.4,30.25,SSE,158,4.7,5.6,70,0.00,,,0.00,WUHU216HW,2013-01-28 13:44:00,
2013-01-28 08:45:00,45.5,36.4,30.24,SE,142,3.6,5.6,70,0.00,,,0.00,WUHU216HW,2013-01-28 13:45:00,
2013-01-28 08:46:00,45.5,36.4,30.25,SSE,158,5.1,5.6,70,0.00,,,0.00,WUHU216HW,2013-01-28 13:46:00,
2013-01-28 08:47:00,45.7,36.5,30.25,SSE,158,4.3,5.6,70,0.00,,,0.00,WUHU216HW,2013-01-28 13:47:00,
2013-01-28 08:49:00,45.5,36.4,30.24,South,176,3.0,5.6,70,0.00,,,0.00,WUHU216HW,2013-01-28 13:49:00,
2013-01-28 08:50:00,45.7,36.9,30.24,SSE,158,6.5,6.5,71,0.00,,,0.00,WUHU216HW,2013-01-28 13:50:00,
2013-01-28 08:51:00,45.7,36.9,30.24,South,179,4.9,6.5,71,0.00,,,0.00,WUHU216HW,2013-01-28 13:51:00,
2013-01-28 08:53:00,45.7,36.5,30.24,South,171,5.1,6.5,70,0.00,,,0.00,WUHU216HW,2013-01-28 13:53:00,
2013-01-28 08:55:00,45.7,36.9,30.24,SE,145,4.3,6.5,71,0.00,,,0.00,WUHU216HW,2013-01-28 13:55:00,
2013-01-28 08:56:00,45.7,36.5,30.24,South,180,4.7,6.5,70,0.00,,,0.00,WUHU216HW,2013-01-28 13:56:00,
2013-01-28 08:58:00,45.7,36.9,30.24,SSE,158,5.1,6.5,71,0.00,,,0.00,WUHU216HW,2013-01-28 13:58:00,
2013-01-28 08:59:00,45.7,36.9,30.24,SSE,149,4.0,6.5,71,0.00,,,0.00,WUHU216HW,2013-01-28 13:59:00,
2013-01-28 09:00:00,45.9,37.1,30.24,SSE,158,3.4,5.4,71,0.00,,,0.00,WUHU216HW,2013-01-28 14:00:00,
2013-01-28 09:02:00,45.9,37.1,30.23,SSE,158,5.4,5.4,71,0.00,,,0.00,WUHU216HW,2013-01-28 14:02:00,
2013-01-28 09:03:00,45.9,37.1,30.24,South,175,4.5,5.4,71,0.00,,,0.00,WUHU216HW,2013-01-28 14:03:00,
2013-01-28 09:04:00,45.9,37.1,30.24,South,180,3.8,5.4,71,0.00,,,0.00,WUHU216HW,2013-01-28 14:04:00,
2013-01-28 09:06:00,45.9,37.1,30.24,South,180,3.6,6.3,71,0.00,,,0.00,WUHU216HW,2013-01-28 14:06:00,
2013-01-28 09:08:00,46.1,37.3,30.24,SE,135,6.5,6.5,71,0.00,,,0.00,WUHU216HW,2013-01-28 14:08:00,
2013-01-28 09:09:00,46.1,37.3,30.24,SE,135,6.2,6.5,71,0.00,,,0.00,WUHU216HW,2013-01-28 14:09:00,
2013-01-28 09:11:00,46.1,37.3,30.23,SSE,158,5.8,6.5,71,0.00,,,0.00,WUHU216HW,2013-01-28 14:11:00,
2013-01-28 09:13:00,46.1,37.3,30.23,SE,142,4.6,6.5,71,0.00,,,0.00,WUHU216HW,2013-01-28 14:13:00,
2013-01-28 09:14:00,46.1,37.6,30.23,South,186,2.6,6.5,72,0.00,,,0.00,WUHU216HW,2013-01-28 14:14:00,
2013-01-28 09:16:00,46.3,37.5,30.24,SSE,158,3.4,6.5,71,0.00,,,0.00,WUHU216HW,2013-01-28 14:16:00,
2013-01-28 09:19:00,46.3,37.8,30.24,SSW,203,4.0,6.3,72,0.00,,,0.00,WUHU216HW,2013-01-28 14:19:00,
2013-01-28 09:20:00,46.4,38.0,30.24,SSW,208,2.7,6.3,72,0.00,,,0.00,WUHU216HW,2013-01-28 14:20:00,
2013-01-28 09:21:00,46.4,38.0,30.24,SSE,158,1.8,6.3,72,0.00,,,0.00,WUHU216HW,2013-01-28 14:21:00,
2013-01-28 09:24:00,46.4,38.0,30.24,South,183,3.9,4.3,72,0.00,,,0.00,WUHU216HW,2013-01-28 14:24:00,
2013-01-28 09:26:00,46.4,38.0,30.24,South,177,2.3,4.3,72,0.00,,,0.00,WUHU216HW,2013-01-28 14:26:00,
2013-01-28 09:27:00,46.4,38.0,30.24,South,177,2.3,4.3,72,0.00,,,0.00,WUHU216HW,2013-01-28 14:27:00,
2013-01-28 09:29:00,46.6,38.1,30.24,SSW,193,3.5,4.3,72,0.00,,,0.00,WUHU216HW,2013-01-28 14:29:00,
2013-01-28 09:31:00,46.6,37.8,30.24,South,178,2.6,4.3,71,0.00,,,0.00,WUHU216HW,2013-01-28 14:31:00,
2013-01-28 09:32:00,46.4,38.0,30.24,SSE,158,4.7,4.7,72,0.00,,,0.00,WUHU216HW,2013-01-28 14:32:00,
2013-01-28 09:35:00,46.6,38.1,30.24,South,180,4.0,4.7,72,0.00,,,0.00,WUHU216HW,2013-01-28 14:35:00,
2013-01-28 09:36:00,46.6,38.1,30.24,SSW,213,2.8,4.7,72,0.00,,,0.00,WUHU216HW,2013-01-28 14:36:00,
2013-01-28 09:37:00,46.6,38.1,30.24,SSW,203,2.5,4.7,72,0.00,,,0.00,WUHU216HW,2013-01-28 14:37:00,
2013-01-28 09:40:00,46.8,38.3,30.24,ESE,113,2.2,4.7,72,0.00,,,0.00,WUHU216HW,2013-01-28 14:40:00,
2013-01-28 09:42:00,46.8,38.3,30.24,SSE,167,5.2,5.4,72,0.00,,,0.00,WUHU216HW,2013-01-28 14:42:00,
2013-01-28 09:45:00,46.8,38.3,30.24,SSE,158,4.7,8.1,72,0.00,,,0.00,WUHU216HW,2013-01-28 14:45:00,
2013-01-28 09:46:00,46.8,38.3,30.24,SSE,158,4.7,8.1,72,0.00,,,0.00,WUHU216HW,2013-01-28 14:46:00,
2013-01-28 09:47:00,46.8,38.3,30.24,SW,225,6.9,8.1,72,0.00,,,0.00,WUHU216HW,2013-01-28 14:47:00,
2013-01-28 09:48:00,46.8,38.3,30.24,SW,225,6.9,8.1,72,0.00,,,0.00,WUHU216HW,2013-01-28 14:48:00,
2013-01-28 09:50:00,46.8,38.3,30.24,SSE,165,2.7,8.1,72,0.00,,,0.00,WUHU216HW,2013-01-28 14:50:00,
2013-01-28 09:51:00,46.8,38.3,30.24,SSE,165,2.7,8.1,72,0.00,,,0.00,WUHU216HW,2013-01-28 14:51:00,
2013-01-28 09:53:00,46.8,38.3,30.24,South,171,6.3,8.1,72,0.00,,,0.00,WUHU216HW,2013-01-28 14:53:00,
2013-01-28 09:56:00,46.8,38.6,30.24,SSE,148,7.1,9.8,73,0.00,,,0.00,WUHU216HW,2013-01-28 14:56:00,
2013-01-28 09:58:00,46.8,38.6,30.24,ESE,113,3.8,9.8,73,0.00,,,0.00,WUHU216HW,2013-01-28 14:58:00,
2013-01-28 09:59:00,46.8,38.6,30.24,ESE,113,3.8,9.8,73,0.00,,,0.00,WUHU216HW,2013-01-28 14:59:00,
2013-01-28 10:01:00,47.0,38.8,30.24,SE,135,12.3,12.3,73,0.00,,,0.00,WUHU216HW,2013-01-28 15:01:00,
2013-01-28 10:02:00,47.0,38.8,30.24,SE,143,9.3,12.3,73,0.00,,,0.00,WUHU216HW,2013-01-28 15:02:00,
2013-01-28 10:04:00,47.2,39.2,30.24,SSE,158,6.6,12.3,74,0.00,,,0.00,WUHU216HW,2013-01-28 15:04:00,
2013-01-28 10:07:00,47.2,39.2,30.24,SSE,163,5.5,12.3,74,0.00,,,0.00,WUHU216HW,2013-01-28 15:07:00,
2013-01-28 10:08:00,47.2,39.2,30.24,South,172,4.3,12.3,74,0.00,,,0.00,WUHU216HW,2013-01-28 15:08:00,
2013-01-28 10:09:00,47.3,39.1,30.24,South,180,6.7,12.3,73,0.00,,,0.00,WUHU216HW,2013-01-28 15:09:00,
2013-01-28 10:12:00,47.3,39.1,30.24,SSE,158,7.6,9.6,73,0.00,,,0.00,WUHU216HW,2013-01-28 15:12:00,
2013-01-28 10:14:00,47.3,39.1,30.24,SSE,158,7.8,8.1,73,0.00,,,0.00,WUHU216HW,2013-01-28 15:14:00,
2013-01-28 10:15:00,47.3,39.1,30.24,South,174,6.3,8.1,73,0.00,,,0.00,WUHU216HW,2013-01-28 15:15:00,
2013-01-28 10:18:00,47.5,39.2,30.24,SSE,161,6.8,8.9,73,0.00,,,0.00,WUHU216HW,2013-01-28 15:18:00,
2013-01-28 10:19:00,47.5,39.2,30.24,South,185,4.4,8.9,73,0.00,,,0.00,WUHU216HW,2013-01-28 15:19:00,
2013-01-28 10:20:00,47.5,39.2,30.24,SSE,158,8.1,8.9,73,0.00,,,0.00,WUHU216HW,2013-01-28 15:20:00,
2013-01-28 10:21:00,47.5,39.2,30.24,SSE,151,5.8,8.9,73,0.00,,,0.00,WUHU216HW,2013-01-28 15:21:00,
2013-01-28 10:23:00,47.7,39.4,30.24,SW,225,4.3,8.9,73,0.00,,,0.00,WUHU216HW,2013-01-28 15:23:00,
2013-01-28 10:25:00,47.9,39.6,30.24,SSE,166,3.8,8.9,73,0.00,,,0.00,WUHU216HW,2013-01-28 15:25:00,
2013-01-28 10:26:00,47.9,39.6,30.24,SE,135,4.0,8.1,73,0.00,,,0.00,WUHU216HW,2013-01-28 15:26:00,
2013-01-28 10:29:00,48.1,39.4,30.24,SSE,148,5.6,8.1,72,0.00,,,0.00,WUHU216HW,2013-01-28 15:29:00,
2013-01-28 10:30:00,48.2,39.6,30.24,SE,142,5.4,7.4,72,0.00,,,0.00,WUHU216HW,2013-01-28 15:30:00,
2013-01-28 10:32:00,48.2,39.6,30.24,SE,135,4.7,7.4,72,0.00,,,0.00,WUHU216HW,2013-01-28 15:32:00,
2013-01-28 10:34:00,48.4,39.8,30.24,South,180,8.1,8.1,72,0.00,,,0.00,WUHU216HW,2013-01-28 15:34:00,
2013-01-28 10:36:00,48.4,39.8,30.24,South,170,9.0,9.6,72,0.00,,,0.00,WUHU216HW,2013-01-28 15:36:00,
2013-01-28 10:37:00,48.4,39.8,30.24,SE,143,6.2,9.6,72,0.00,,,0.00,WUHU216HW,2013-01-28 15:37:00,
2013-01-28 10:39:00,48.6,40.0,30.24,SE,130,4.3,9.6,72,0.00,,,0.00,WUHU216HW,2013-01-28 15:39:00,
2013-01-28 10:41:00,48.6,40.0,30.24,SE,126,4.2,9.6,72,0.00,,,0.00,WUHU216HW,2013-01-28 15:41:00,
2013-01-28 10:43:00,48.8,40.2,30.25,SSE,150,4.0,9.6,72,0.00,,,0.00,WUHU216HW,2013-01-28 15:43:00,
2013-01-28 10:44:00,48.8,40.2,30.25,SSE,158,4.7,9.6,72,0.00,,,0.00,WUHU216HW,2013-01-28 15:44:00,
2013-01-28 10:46:00,48.8,40.2,30.24,ESE,122,3.5,6.5,72,0.00,,,0.00,WUHU216HW,2013-01-28 15:46:00,
2013-01-28 10:48:00,49.0,40.3,30.24,ESE,113,5.6,6.5,72,0.00,,,0.00,WUHU216HW,2013-01-28 15:48:00,
2013-01-28 10:49:00,49.0,40.3,30.24,ESE,123,5.3,6.5,72,0.00,,,0.00,WUHU216HW,2013-01-28 15:49:00,
2013-01-28 10:51:00,49.0,40.3,30.24,South,180,6.3,6.3,72,0.00,,,0.00,WUHU216HW,2013-01-28 15:51:00,
2013-01-28 10:52:00,49.0,40.3,30.24,South,180,6.3,6.3,72,0.00,,,0.00,WUHU216HW,2013-01-28 15:52:00,
2013-01-28 10:53:00,49.1,40.5,30.24,SSE,158,5.6,6.3,72,0.00,,,0.00,WUHU216HW,2013-01-28 15:53:00,
2013-01-28 10:55:00,49.1,40.5,30.24,SSE,147,5.1,6.3,72,0.00,,,0.00,WUHU216HW,2013-01-28 15:55:00,
2013-01-28 10:57:00,49.3,40.7,30.24,South,187,5.7,7.6,72,0.00,,,0.00,WUHU216HW,2013-01-28 15:57:00,
2013-01-28 10:59:00,49.3,40.7,30.24,SSE,158,6.0,7.6,72,0.00,,,0.00,WUHU216HW,2013-01-28 15:59:00,
2013-01-28 11:00:00,49.3,40.7,30.24,SSE,158,6.0,7.6,72,0.00,,,0.00,WUHU216HW,2013-01-28 16:00:00,
2013-01-28 11:02:00,49.5,40.9,30.24,SSE,158,6.9,7.6,72,0.00,,,0.00,WUHU216HW,2013-01-28 16:02:00,
2013-01-28 11:05:00,49.5,40.9,30.24,South,171,6.3,7.6,72,0.00,,,0.00,WUHU216HW,2013-01-28 16:05:00,
2013-01-28 11:06:00,49.5,40.9,30.24,SE,135,7.8,7.8,72,0.00,,,0.00,WUHU216HW,2013-01-28 16:06:00,
2013-01-28 11:07:00,49.7,41.1,30.24,SE,145,7.1,7.8,72,0.00,,,0.00,WUHU216HW,2013-01-28 16:07:00,
2013-01-28 11:10:00,49.7,41.1,30.24,SE,135,10.3,10.3,72,0.00,,,0.00,WUHU216HW,2013-01-28 16:10:00,
2013-01-28 11:11:00,49.7,41.1,30.24,SE,135,8.1,10.3,72,0.00,,,0.00,WUHU216HW,2013-01-28 16:11:00,
2013-01-28 11:12:00,49.9,41.2,30.24,SE,135,6.3,10.3,72,0.00,,,0.00,WUHU216HW,2013-01-28 16:12:00,
2013-01-28 11:15:00,49.7,41.1,30.24,SE,135,4.3,10.3,72,0.00,,,0.00,WUHU216HW,2013-01-28 16:15:00,
2013-01-28 11:16:00,49.9,41.2,30.24,SE,135,6.3,10.3,72,0.00,,,0.00,WUHU216HW,2013-01-28 16:16:00,
2013-01-28 11:18:00,49.9,41.2,30.24,SE,144,5.4,10.3,72,0.00,,,0.00,WUHU216HW,2013-01-28 16:18:00,
2013-01-28 11:21:00,50.0,41.4,30.24,SSE,150,4.9,6.3,72,0.00,,,0.00,WUHU216HW,2013-01-28 16:21:00,
2013-01-28 11:22:00,50.0,41.4,30.24,SSE,150,4.9,6.3,72,0.00,,,0.00,WUHU216HW,2013-01-28 16:22:00,
2013-01-28 11:23:00,50.2,41.6,30.23,SE,135,7.2,7.2,72,0.00,,,0.00,WUHU216HW,2013-01-28 16:23:00,
2013-01-28 11:26:00,50.2,41.6,30.23,South,191,4.3,7.4,72,0.00,,,0.00,WUHU216HW,2013-01-28 16:26:00,
2013-01-28 11:27:00,50.2,41.6,30.23,South,191,4.3,7.4,72,0.00,,,0.00,WUHU216HW,2013-01-28 16:27:00,
2013-01-28 11:29:00,50.2,41.6,30.23,SSE,167,3.3,7.4,72,0.00,,,0.00,WUHU216HW,2013-01-28 16:29:00,
2013-01-28 11:32:00,50.4,41.8,30.23,SE,145,5.5,7.4,72,0.00,,,0.00,WUHU216HW,2013-01-28 16:32:00,
2013-01-28 11:34:00,50.4,41.8,30.23,ESE,113,4.7,7.4,72,0.00,,,0.00,WUHU216HW,2013-01-28 16:34:00,
2013-01-28 11:35:00,50.4,41.8,30.23,ESE,113,4.7,7.4,72,0.00,,,0.00,WUHU216HW,2013-01-28 16:35:00,
2013-01-28 11:37:00,50.6,42.0,30.23,SE,135,5.4,6.3,72,0.00,,,0.00,WUHU216HW,2013-01-28 16:37:00,
2013-01-28 11:38:00,50.6,42.0,30.23,ESE,113,5.4,6.3,72,0.00,,,0.00,WUHU216HW,2013-01-28 16:38:00,
2013-01-28 11:40:00,50.6,42.0,30.23,SE,135,4.3,5.4,72,0.00,,,0.00,WUHU216HW,2013-01-28 16:40:00,
2013-01-28 11:41:00,50.8,42.1,30.23,South,180,4.3,5.4,72,0.00,,,0.00,WUHU216HW,2013-01-28 16:41:00,
2013-01-28 11:43:00,50.9,42.3,30.23,South,178,8.3,8.9,72,0.00,,,0.00,WUHU216HW,2013-01-28 16:43:00,
2013-01-28 11:44:00,50.9,42.3,30.23,South,178,8.3,8.9,72,0.00,,,0.00,WUHU216HW,2013-01-28 16:44:00,
2013-01-28 11:45:00,50.9,42.3,30.23,SE,135,7.2,8.9,72,0.00,,,0.00,WUHU216HW,2013-01-28 16:45:00,
2013-01-28 11:46:00,50.9,42.3,30.22,SE,144,5.8,8.9,72,0.00,,,0.00,WUHU216HW,2013-01-28 16:46:00,
2013-01-28 11:48:00,51.1,42.5,30.22,SE,135,6.5,8.9,72,0.00,,,0.00,WUHU216HW,2013-01-28 16:48:00,
2013-01-28 11:49:00,51.1,42.5,30.22,SE,135,6.5,8.9,72,0.00,,,0.00,WUHU216HW,2013-01-28 16:49:00,
2013-01-28 11:51:00,51.3,42.7,30.22,SE,135,5.4,8.9,72,0.00,,,0.00,WUHU216HW,2013-01-28 16:51:00,
2013-01-28 11:52:00,51.5,42.9,30.22,South,172,4.7,7.6,72,0.00,,,0.00,WUHU216HW,2013-01-28 16:52:00,
2013-01-28 11:54:00,51.7,43.0,30.22,SSE,158,4.9,7.6,72,0.00,,,0.00,WUHU216HW,2013-01-28 16:54:00,
2013-01-28 11:57:00,51.8,43.2,30.22,SSE,158,7.4,7.6,72,0.00,,,0.00,WUHU216HW,2013-01-28 16:57:00,
2013-01-28 11:59:00,52.0,43.0,30.22,South,180,2.5,7.4,71,0.00,,,0.00,WUHU216HW,2013-01-28 16:59:00,
2013-01-28 12:02:00,52.2,43.5,30.22,SSW,203,4.0,7.4,72,0.00,,,0.00,WUHU216HW,2013-01-28 17:02:00,
2013-01-28 12:03:00,52.0,43.3,30.22,South,182,3.7,7.4,72,0.00,,,0.00,WUHU216HW,2013-01-28 17:03:00,
2013-01-28 12:04:00,52.2,43.5,30.22,SSE,158,5.4,7.4,72,0.00,,,0.00,WUHU216HW,2013-01-28 17:04:00,
2013-01-28 12:05:00,52.2,43.1,30.22,SSE,147,5.1,7.4,71,0.00,,,0.00,WUHU216HW,2013-01-28 17:05:00,
2013-01-28 12:07:00,52.2,43.5,30.22,SSE,158,4.5,5.4,72,0.00,,,0.00,WUHU216HW,2013-01-28 17:07:00,
2013-01-28 12:08:00,52.2,43.1,30.22,ESE,113,4.7,5.4,71,0.00,,,0.00,WUHU216HW,2013-01-28 17:08:00,
2013-01-28 12:10:00,52.0,43.0,30.22,SSE,163,3.3,5.4,71,0.00,,,0.00,WUHU216HW,2013-01-28 17:10:00,
2013-01-28 12:11:00,52.2,43.1,30.22,SSW,203,2.7,5.4,71,0.00,,,0.00,WUHU216HW,2013-01-28 17:11:00,
2013-01-28 12:12:00,52.2,43.1,30.22,SSW,203,4.5,5.4,71,0.00,,,0.00,WUHU216HW,2013-01-28 17:12:00,
2013-01-28 12:15:00,52.4,43.7,30.22,ESE,113,4.3,4.7,72,0.00,,,0.00,WUHU216HW,2013-01-28 17:15:00,
2013-01-28 12:16:00,52.4,43.7,30.22,SE,145,4.2,4.7,72,0.00,,,0.00,WUHU216HW,2013-01-28 17:16:00,
2013-01-28 12:18:00,52.6,43.8,30.22,SSE,148,6.0,6.9,72,0.00,,,0.00,WUHU216HW,2013-01-28 17:18:00,
2013-01-28 12:21:00,52.6,43.8,30.22,SSE,160,3.2,6.9,72,0.00,,,0.00,WUHU216HW,2013-01-28 17:21:00,
2013-01-28 12:22:00,52.7,44.0,30.21,South,180,6.3,6.9,72,0.00,,,0.00,WUHU216HW,2013-01-28 17:22:00,
2013-01-28 12:23:00,52.7,44.0,30.22,SSW,195,4.9,6.9,72,0.00,,,0.00,WUHU216HW,2013-01-28 17:23:00,
2013-01-28 12:26:00,52.9,44.2,30.22,ESE,113,6.3,6.9,72,0.00,,,0.00,WUHU216HW,2013-01-28 17:26:00,
2013-01-28 12:27:00,52.9,44.2,30.21,SE,130,5.2,6.3,72,0.00,,,0.00,WUHU216HW,2013-01-28 17:27:00,
2013-01-28 12:28:00,52.9,44.2,30.21,SSE,158,3.5,6.3,72,0.00,,,0.00,WUHU216HW,2013-01-28 17:28:00,
2013-01-28 12:32:00,53.1,44.3,30.21,South,190,3.8,6.3,72,0.00,,,0.00,WUHU216HW,2013-01-28 17:32:00,
2013-01-28 12:34:00,53.3,44.5,30.21,SSW,203,5.4,6.3,72,0.00,,,0.00,WUHU216HW,2013-01-28 17:34:00,
2013-01-28 12:37:00,53.5,44.6,30.21,SSW,203,4.3,5.4,72,0.00,,,0.00,WUHU216HW,2013-01-28 17:37:00,
2013-01-28 12:38:00,53.5,44.6,30.21,SSW,203,4.3,5.4,72,0.00,,,0.00,WUHU216HW,2013-01-28 17:38:00,
2013-01-28 12:39:00,53.6,44.8,30.21,SE,135,4.0,5.4,72,0.00,,,0.00,WUHU216HW,2013-01-28 17:39:00,
2013-01-28 12:42:00,53.6,44.8,30.20,South,171,4.3,5.4,72,0.00,,,0.00,WUHU216HW,2013-01-28 17:42:00,
2013-01-28 12:43:00,53.6,44.8,30.20,South,171,4.3,5.1,72,0.00,,,0.00,WUHU216HW,2013-01-28 17:43:00,
2013-01-28 12:44:00,53.6,44.5,30.20,SE,135,2.9,5.1,71,0.00,,,0.00,WUHU216HW,2013-01-28 17:44:00,
2013-01-28 12:47:00,53.8,44.7,30.20,SSE,164,4.9,5.4,71,0.00,,,0.00,WUHU216HW,2013-01-28 17:47:00,
2013-01-28 12:48:00,53.8,44.7,30.20,SSE,160,4.2,5.4,71,0.00,,,0.00,WUHU216HW,2013-01-28 17:48:00,
2013-01-28 12:49:00,54.0,45.2,30.20,South,175,3.3,5.4,72,0.00,,,0.00,WUHU216HW,2013-01-28 17:49:00,
2013-01-28 12:53:00,54.2,45.4,30.19,SSE,158,9.2,9.2,72,0.00,,,0.00,WUHU216HW,2013-01-28 17:53:00,
2013-01-28 12:54:00,54.2,45.4,30.19,WSW,248,2.5,9.2,72,0.00,,,0.00,WUHU216HW,2013-01-28 17:54:00,
2013-01-28 12:56:00,54.4,45.6,30.19,South,169,3.9,9.2,72,0.00,,,0.00,WUHU216HW,2013-01-28 17:56:00,
2013-01-28 12:59:00,54.4,45.6,30.19,South,172,3.0,9.2,72,0.00,,,0.00,WUHU216HW,2013-01-28 17:59:00,
2013-01-28 13:00:00,54.4,45.6,30.19,ESE,113,2.5,9.2,72,0.00,,,0.00,WUHU216HW,2013-01-28 18:00:00,
2013-01-28 13:01:00,54.4,45.2,30.19,East,90,2.5,9.2,71,0.00,,,0.00,WUHU216HW,2013-01-28 18:01:00,
2013-01-28 13:04:00,54.4,45.2,30.19,WSW,248,2.0,4.0,71,0.00,,,0.00,WUHU216HW,2013-01-28 18:04:00,
2013-01-28 13:05:00,54.4,45.2,30.19,SW,228,1.4,4.0,71,0.00,,,0.00,WUHU216HW,2013-01-28 18:05:00,
2013-01-28 13:06:00,54.4,45.2,30.19,ESE,113,1.8,4.0,71,0.00,,,0.00,WUHU216HW,2013-01-28 18:06:00,
2013-01-28 13:09:00,54.5,45.4,30.19,SW,225,1.6,2.5,71,0.00,,,0.00,WUHU216HW,2013-01-28 18:09:00,
2013-01-28 13:10:00,54.5,45.4,30.19,South,180,4.3,4.3,71,0.00,,,0.00,WUHU216HW,2013-01-28 18:10:00,
2013-01-28 13:11:00,54.5,45.4,30.19,SSE,157,3.1,4.3,71,0.00,,,0.00,WUHU216HW,2013-01-28 18:11:00,
2013-01-28 13:12:00,54.7,45.6,30.19,East,101,1.7,4.3,71,0.00,,,0.00,WUHU216HW,2013-01-28 18:12:00,
2013-01-28 13:14:00,54.7,45.6,30.19,ESE,113,3.1,4.3,71,0.00,,,0.00,WUHU216HW,2013-01-28 18:14:00,
2013-01-28 13:15:00,54.7,45.9,30.19,ESE,123,2.8,4.3,72,0.00,,,0.00,WUHU216HW,2013-01-28 18:15:00,
2013-01-28 13:17:00,54.7,45.6,30.19,SE,128,2.8,4.3,71,0.00,,,0.00,WUHU216HW,2013-01-28 18:17:00,
2013-01-28 13:20:00,54.7,45.6,30.19,South,180,4.7,6.9,71,0.00,,,0.00,WUHU216HW,2013-01-28 18:20:00,
2013-01-28 13:21:00,54.7,45.6,30.19,SSE,158,3.4,6.9,71,0.00,,,0.00,WUHU216HW,2013-01-28 18:21:00,
2013-01-28 13:22:00,54.7,45.6,30.19,SE,135,4.9,6.9,71,0.00,,,0.00,WUHU216HW,2013-01-28 18:22:00,
2013-01-28 13:25:00,54.5,45.4,30.19,South,182,2.0,6.9,71,0.00,,,0.00,WUHU216HW,2013-01-28 18:25:00,
2013-01-28 13:26:00,54.4,45.2,30.19,South,180,4.5,6.9,71,0.00,,,0.00,WUHU216HW,2013-01-28 18:26:00,
2013-01-28 13:27:00,54.5,45.4,30.19,SSE,163,3.7,6.9,71,0.00,,,0.00,WUHU216HW,2013-01-28 18:27:00,
2013-01-28 13:28:00,54.4,45.2,30.18,SSE,158,6.9,6.9,71,0.00,,,0.00,WUHU216HW,2013-01-28 18:28:00,
2013-01-28 13:31:00,54.4,45.2,30.18,SE,135,4.7,6.9,71,0.00,,,0.00,WUHU216HW,2013-01-28 18:31:00,
2013-01-28 13:32:00,54.4,45.2,30.18,SE,135,4.7,6.9,71,0.00,,,0.00,WUHU216HW,2013-01-28 18:32:00,
2013-01-28 13:34:00,54.2,45.0,30.18,SE,135,4.7,6.9,71,0.00,,,0.00,WUHU216HW,2013-01-28 18:34:00,
2013-01-28 13:37:00,54.0,45.2,30.18,SSE,167,4.8,6.9,72,0.00,,,0.00,WUHU216HW,2013-01-28 18:37:00,
2013-01-28 13:38:00,54.0,45.2,30.18,SSE,167,4.8,6.9,72,0.00,,,0.00,WUHU216HW,2013-01-28 18:38:00,
2013-01-28 13:39:00,54.0,45.2,30.18,South,180,5.6,5.6,72,0.00,,,0.00,WUHU216HW,2013-01-28 18:39:00,
2013-01-28 13:42:00,54.0,45.2,30.17,SE,135,2.2,5.6,72,0.00,,,0.00,WUHU216HW,2013-01-28 18:42:00,
2013-01-28 13:43:00,54.0,45.2,30.17,SE,135,2.2,5.6,72,0.00,,,0.00,WUHU216HW,2013-01-28 18:43:00,
2013-01-28 13:45:00,54.0,45.2,30.17,ESE,123,3.6,5.6,72,0.00,,,0.00,WUHU216HW,2013-01-28 18:45:00,
2013-01-28 13:48:00,54.0,45.2,30.17,SSE,147,1.9,5.6,72,0.00,,,0.00,WUHU216HW,2013-01-28 18:48:00,
2013-01-28 13:49:00,54.0,45.2,30.18,South,180,4.3,4.7,72,0.00,,,0.00,WUHU216HW,2013-01-28 18:49:00,
2013-01-28 13:50:00,54.0,45.2,30.18,SSE,158,4.5,4.7,72,0.00,,,0.00,WUHU216HW,2013-01-28 18:50:00,
2013-01-28 13:53:00,54.0,45.2,30.17,South,180,2.9,5.1,72,0.00,,,0.00,WUHU216HW,2013-01-28 18:53:00,
2013-01-28 13:54:00,54.0,45.2,30.17,SSE,158,3.6,5.1,72,0.00,,,0.00,WUHU216HW,2013-01-28 18:54:00,
2013-01-28 13:55:00,54.0,45.2,30.17,SSE,147,3.5,5.1,72,0.00,,,0.00,WUHU216HW,2013-01-28 18:55:00,
2013-01-28 13:58:00,54.0,45.2,30.17,SE,145,3.5,5.1,72,0.00,,,0.00,WUHU216HW,2013-01-28 18:58:00,
2013-01-28 13:59:00,54.0,45.2,30.17,SE,145,3.5,5.1,72,0.00,,,0.00,WUHU216HW,2013-01-28 18:59:00,
2013-01-28 14:00:00,54.2,45.4,30.17,SE,135,3.4,5.1,72,0.00,,,0.00,WUHU216HW,2013-01-28 19:00:00,
2013-01-28 14:01:00,54.2,45.4,30.17,SE,135,4.7,4.7,72,0.00,,,0.00,WUHU216HW,2013-01-28 19:01:00,
2013-01-28 14:03:00,54.2,45.4,30.17,SE,143,3.6,4.7,72,0.00,,,0.00,WUHU216HW,2013-01-28 19:03:00,
2013-01-28 14:04:00,54.4,45.6,30.17,SE,135,4.0,4.7,72,0.00,,,0.00,WUHU216HW,2013-01-28 19:04:00,
2013-01-28 14:05:00,54.4,45.6,30.17,SE,135,3.8,4.7,72,0.00,,,0.00,WUHU216HW,2013-01-28 19:05:00,
2013-01-28 14:07:00,54.4,45.6,30.17,SSE,158,2.7,4.7,72,0.00,,,0.00,WUHU216HW,2013-01-28 19:07:00,
2013-01-28 14:09:00,54.5,46.1,30.16,ESE,107,3.3,4.7,73,0.00,,,0.00,WUHU216HW,2013-01-28 19:09:00,
2013-01-28 14:10:00,54.5,45.7,30.16,ESE,113,4.3,4.7,72,0.00,,,0.00,WUHU216HW,2013-01-28 19:10:00,
2013-01-28 14:11:00,54.5,45.7,30.16,ESE,113,6.3,6.3,72,0.00,,,0.00,WUHU216HW,2013-01-28 19:11:00,
2013-01-28 14:12:00,54.5,45.7,30.16,SE,135,7.4,7.4,72,0.00,,,0.00,WUHU216HW,2013-01-28 19:12:00,
2013-01-28 14:14:00,54.4,45.6,30.16,SE,135,4.7,7.4,72,0.00,,,0.00,WUHU216HW,2013-01-28 19:14:00,
2013-01-28 14:15:00,54.4,45.6,30.16,SE,145,4.3,7.4,72,0.00,,,0.00,WUHU216HW,2013-01-28 19:15:00,
2013-01-28 14:16:00,54.4,45.6,30.16,ESE,113,5.1,7.4,72,0.00,,,0.00,WUHU216HW,2013-01-28 19:16:00,
2013-01-28 14:18:00,54.5,45.7,30.16,SE,125,2.2,7.4,72,0.00,,,0.00,WUHU216HW,2013-01-28 19:18:00,
2013-01-28 14:20:00,54.5,45.7,30.16,SSE,158,3.4,7.4,72,0.00,,,0.00,WUHU216HW,2013-01-28 19:20:00,
2013-01-28 14:21:00,54.5,45.7,30.16,East,90,5.1,7.4,72,0.00,,,0.00,WUHU216HW,2013-01-28 19:21:00,
2013-01-28 14:22:00,54.7,45.9,30.16,ESE,112,4.9,5.1,72,0.00,,,0.00,WUHU216HW,2013-01-28 19:22:00,
2013-01-28 14:23:00,54.7,46.3,30.16,SE,135,4.6,5.1,73,0.00,,,0.00,WUHU216HW,2013-01-28 19:23:00,
2013-01-28 14:25:00,54.7,45.9,30.16,SSE,157,4.4,5.1,72,0.00,,,0.00,WUHU216HW,2013-01-28 19:25:00,
2013-01-28 14:27:00,54.7,45.9,30.16,SE,135,7.4,7.4,72,0.00,,,0.00,WUHU216HW,2013-01-28 19:27:00,
2013-01-28 14:28:00,54.7,45.9,30.16,SE,135,3.4,7.4,72,0.00,,,0.00,WUHU216HW,2013-01-28 19:28:00,
2013-01-28 14:29:00,54.7,45.9,30.16,SE,135,3.4,7.4,72,0.00,,,0.00,WUHU216HW,2013-01-28 19:29:00,
2013-01-28 14:30:00,54.7,45.9,30.16,SE,125,4.0,7.4,72,0.00,,,0.00,WUHU216HW,2013-01-28 19:30:00,
2013-01-28 14:32:00,54.7,45.9,30.15,SE,135,4.8,7.4,72,0.00,,,0.00,WUHU216HW,2013-01-28 19:32:00,
2013-01-28 14:34:00,54.7,46.3,30.15,SW,225,5.4,7.4,73,0.00,,,0.00,WUHU216HW,2013-01-28 19:34:00,
2013-01-28 14:35:00,54.7,46.3,30.15,SW,225,4.4,7.4,73,0.00,,,0.00,WUHU216HW,2013-01-28 19:35:00,
2013-01-28 14:36:00,54.7,46.3,30.15,SSW,208,2.3,6.7,73,0.00,,,0.00,WUHU216HW,2013-01-28 19:36:00,
2013-01-28 14:38:00,54.9,46.5,30.15,SSE,164,2.9,6.7,73,0.00,,,0.00,WUHU216HW,2013-01-28 19:38:00,
2013-01-28 14:40:00,54.9,46.5,30.15,SE,135,2.9,6.7,73,0.00,,,0.00,WUHU216HW,2013-01-28 19:40:00,
2013-01-28 14:41:00,55.1,46.6,30.15,South,179,2.8,5.4,73,0.00,,,0.00,WUHU216HW,2013-01-28 19:41:00,
2013-01-28 14:42:00,55.1,46.6,30.15,South,179,2.8,5.4,73,0.00,,,0.00,WUHU216HW,2013-01-28 19:42:00,
2013-01-28 14:44:00,55.4,46.6,30.15,SSW,197,3.2,4.0,72,0.00,,,0.00,WUHU216HW,2013-01-28 19:44:00,
2013-01-28 14:45:00,55.6,46.7,30.15,SE,135,4.0,4.0,72,0.00,,,0.00,WUHU216HW,2013-01-28 19:45:00,
2013-01-28 14:46:00,55.6,46.7,30.15,SE,145,3.5,4.0,72,0.00,,,0.00,WUHU216HW,2013-01-28 19:46:00,
2013-01-28 14:48:00,55.8,46.9,30.15,SSW,203,2.0,4.0,72,0.00,,,0.00,WUHU216HW,2013-01-28 19:48:00,
2013-01-28 14:50:00,55.8,46.9,30.15,SW,225,2.5,4.0,72,0.00,,,0.00,WUHU216HW,2013-01-28 19:50:00,
2013-01-28 14:51:00,55.8,46.9,30.15,South,180,5.8,5.8,72,0.00,,,0.00,WUHU216HW,2013-01-28 19:51:00,
2013-01-28 14:53:00,55.8,46.5,30.15,WSW,243,2.2,5.8,71,0.00,,,0.00,WUHU216HW,2013-01-28 19:53:00,
2013-01-28 14:56:00,56.0,46.7,30.15,South,171,2.2,5.8,71,0.00,,,0.00,WUHU216HW,2013-01-28 19:56:00,
2013-01-28 14:57:00,56.0,46.7,30.15,South,171,2.2,5.8,71,0.00,,,0.00,WUHU216HW,2013-01-28 19:57:00,
2013-01-28 14:59:00,55.8,46.5,30.15,South,180,5.4,5.8,71,0.00,,,0.00,WUHU216HW,2013-01-28 19:59:00,
2013-01-28 15:02:00,55.8,46.5,30.15,SSE,158,1.8,5.4,71,0.00,,,0.00,WUHU216HW,2013-01-28 20:02:00,
2013-01-28 15:03:00,55.8,46.5,30.15,South,180,1.8,5.4,71,0.00,,,0.00,WUHU216HW,2013-01-28 20:03:00,
2013-01-28 15:04:00,55.8,46.5,30.15,SSE,158,2.5,5.4,71,0.00,,,0.00,WUHU216HW,2013-01-28 20:04:00,
2013-01-28 15:07:00,56.0,46.7,30.15,SSE,158,5.1,5.4,71,0.00,,,0.00,WUHU216HW,2013-01-28 20:07:00,
2013-01-28 15:08:00,56.0,46.7,30.15,SE,135,6.3,6.3,71,0.00,,,0.00,WUHU216HW,2013-01-28 20:08:00,
2013-01-28 15:09:00,55.8,46.5,30.15,SE,145,3.9,6.3,71,0.00,,,0.00,WUHU216HW,2013-01-28 20:09:00,
2013-01-28 15:12:00,55.8,46.5,30.15,SSW,203,3.4,6.3,71,0.00,,,0.00,WUHU216HW,2013-01-28 20:12:00,
2013-01-28 15:13:00,55.8,46.5,30.15,SSW,203,4.5,6.3,71,0.00,,,0.00,WUHU216HW,2013-01-28 20:13:00,
2013-01-28 15:14:00,55.8,46.5,30.15,SE,135,6.3,6.3,71,0.00,,,0.00,WUHU216HW,2013-01-28 20:14:00,
2013-01-28 15:17:00,55.6,46.5,30.15,SSE,166,4.0,6.3,71,0.00,,,0.00,WUHU216HW,2013-01-28 20:17:00,
2013-01-28 15:18:00,55.6,46.5,30.15,ESE,113,3.4,6.3,71,0.00,,,0.00,WUHU216HW,2013-01-28 20:18:00,
2013-01-28 15:20:00,55.8,46.5,30.15,SSW,203,4.3,6.3,71,0.00,,,0.00,WUHU216HW,2013-01-28 20:20:00,
2013-01-28 15:23:00,55.8,46.5,30.15,SE,135,3.6,6.3,71,0.00,,,0.00,WUHU216HW,2013-01-28 20:23:00,
2013-01-28 15:24:00,55.8,46.5,30.15,SSE,158,4.0,5.1,71,0.00,,,0.00,WUHU216HW,2013-01-28 20:24:00,
2013-01-28 15:25:00,55.8,46.5,30.15,SSE,158,4.7,5.1,71,0.00,,,0.00,WUHU216HW,2013-01-28 20:25:00,
2013-01-28 15:28:00,55.8,46.5,30.14,SE,135,5.4,5.4,71,0.00,,,0.00,WUHU216HW,2013-01-28 20:28:00,
2013-01-28 15:29:00,55.8,46.5,30.14,SE,135,5.4,5.4,71,0.00,,,0.00,WUHU216HW,2013-01-28 20:29:00,
2013-01-28 15:31:00,56.0,46.7,30.14,SW,225,4.9,5.4,71,0.00,,,0.00,WUHU216HW,2013-01-28 20:31:00,
2013-01-28 15:33:00,56.2,46.9,30.14,SE,135,6.0,6.0,71,0.00,,,0.00,WUHU216HW,2013-01-28 20:33:00,
2013-01-28 15:34:00,56.2,46.9,30.14,SSE,164,5.3,6.0,71,0.00,,,0.00,WUHU216HW,2013-01-28 20:34:00,
2013-01-28 15:35:00,56.2,46.9,30.14,SSE,158,6.3,6.3,71,0.00,,,0.00,WUHU216HW,2013-01-28 20:35:00,
2013-01-28 15:36:00,56.2,46.9,30.14,SSE,158,6.3,6.3,71,0.00,,,0.00,WUHU216HW,2013-01-28 20:36:00,
2013-01-28 15:38:00,56.2,46.9,30.14,SSE,158,6.0,6.3,71,0.00,,,0.00,WUHU216HW,2013-01-28 20:38:00,
2013-01-28 15:39:00,56.2,46.9,30.14,SSE,158,6.0,6.3,71,0.00,,,0.00,WUHU216HW,2013-01-28 20:39:00,
2013-01-28 15:41:00,56.2,46.9,30.13,SSE,159,3.5,6.3,71,0.00,,,0.00,WUHU216HW,2013-01-28 20:41:00,
2013-01-28 15:42:00,56.2,46.9,30.13,SE,139,4.9,6.3,71,0.00,,,0.00,WUHU216HW,2013-01-28 20:42:00,
2013-01-28 15:44:00,56.2,46.9,30.13,SSE,158,6.7,6.7,71,0.00,,,0.00,WUHU216HW,2013-01-28 20:44:00,
2013-01-28 15:46:00,56.3,47.1,30.14,South,189,4.1,6.7,71,0.00,,,0.00,WUHU216HW,2013-01-28 20:46:00,
2013-01-28 15:47:00,56.3,47.1,30.13,SE,146,3.3,6.7,71,0.00,,,0.00,WUHU216HW,2013-01-28 20:47:00,
2013-01-28 15:50:00,56.5,47.3,30.13,SE,135,2.9,6.7,71,0.00,,,0.00,WUHU216HW,2013-01-28 20:50:00,
2013-01-28 15:51:00,56.5,47.3,30.13,SSE,164,3.7,6.7,71,0.00,,,0.00,WUHU216HW,2013-01-28 20:51:00,
2013-01-28 15:52:00,56.7,47.4,30.13,SSE,158,4.0,6.7,71,0.00,,,0.00,WUHU216HW,2013-01-28 20:52:00,
2013-01-28 15:55:00,56.7,47.4,30.13,SE,135,3.4,5.1,71,0.00,,,0.00,WUHU216HW,2013-01-28 20:55:00,
2013-01-28 15:56:00,56.7,47.1,30.14,SE,135,4.9,5.1,70,0.00,,,0.00,WUHU216HW,2013-01-28 20:56:00,
2013-01-28 15:57:00,56.9,47.2,30.14,SE,135,4.3,5.1,70,0.00,,,0.00,WUHU216HW,2013-01-28 20:57:00,
2013-01-28 16:00:00,56.5,46.9,30.14,SSW,203,2.7,5.1,70,0.00,,,0.00,WUHU216HW,2013-01-28 21:00:00,
2013-01-28 16:01:00,56.7,47.1,30.14,South,187,2.4,4.9,70,0.00,,,0.00,WUHU216HW,2013-01-28 21:01:00,
2013-01-28 16:02:00,56.7,47.1,30.14,WSW,248,3.4,4.9,70,0.00,,,0.00,WUHU216HW,2013-01-28 21:02:00,
2013-01-28 16:04:00,56.7,47.1,30.14,SSE,158,4.7,4.9,70,0.00,,,0.00,WUHU216HW,2013-01-28 21:04:00,
2013-01-28 16:05:00,56.7,47.1,30.14,South,179,4.6,4.9,70,0.00,,,0.00,WUHU216HW,2013-01-28 21:05:00,
2013-01-28 16:06:00,56.7,47.1,30.14,SSW,195,3.5,4.7,70,0.00,,,0.00,WUHU216HW,2013-01-28 21:06:00,
2013-01-28 16:08:00,56.5,46.9,30.14,SSE,158,2.7,4.7,70,0.00,,,0.00,WUHU216HW,2013-01-28 21:08:00,
2013-01-28 16:09:00,56.5,46.9,30.14,SSE,158,4.0,4.7,70,0.00,,,0.00,WUHU216HW,2013-01-28 21:09:00,
2013-01-28 16:10:00,56.5,46.9,30.14,SSE,168,3.7,4.7,70,0.00,,,0.00,WUHU216HW,2013-01-28 21:10:00,
2013-01-28 16:11:00,56.3,46.7,30.14,SSE,152,3.0,4.7,70,0.00,,,0.00,WUHU216HW,2013-01-28 21:11:00,
2013-01-28 16:13:00,56.2,46.5,30.14,SE,135,4.0,4.7,70,0.00,,,0.00,WUHU216HW,2013-01-28 21:13:00,
2013-01-28 16:15:00,56.2,46.5,30.14,SSW,193,2.3,4.0,70,0.00,,,0.00,WUHU216HW,2013-01-28 21:15:00,
2013-01-28 16:16:00,56.2,46.5,30.14,SSE,158,2.0,4.0,70,0.00,,,0.00,WUHU216HW,2013-01-28 21:16:00,
2013-01-28 16:17:00,56.2,46.5,30.14,SE,135,2.0,4.0,70,0.00,,,0.00,WUHU216HW,2013-01-28 21:17:00,
2013-01-28 16:19:00,56.2,46.5,30.13,SW,225,2.5,4.0,70,0.00,,,0.00,WUHU216HW,2013-01-28 21:19:00,
2013-01-28 16:21:00,56.2,46.9,30.13,SE,135,1.8,4.0,71,0.00,,,0.00,WUHU216HW,2013-01-28 21:21:00,
2013-01-28 16:22:00,56.3,47.1,30.13,SSE,158,4.3,4.3,71,0.00,,,0.00,WUHU216HW,2013-01-28 21:22:00,
2013-01-28 16:23:00,56.3,47.1,30.13,SSE,166,3.4,4.3,71,0.00,,,0.00,WUHU216HW,2013-01-28 21:23:00,
2013-01-28 16:24:00,56.3,47.1,30.13,South,180,2.7,4.3,71,0.00,,,0.00,WUHU216HW,2013-01-28 21:24:00,
2013-01-28 16:26:00,56.5,46.9,30.13,SE,145,1.0,4.3,70,0.00,,,0.00,WUHU216HW,2013-01-28 21:26:00,
2013-01-28 16:27:00,56.5,47.3,30.13,South,180,1.3,4.3,71,0.00,,,0.00,WUHU216HW,2013-01-28 21:27:00,
2013-01-28 16:29:00,56.5,47.3,30.13,SE,135,3.6,4.3,71,0.00,,,0.00,WUHU216HW,2013-01-28 21:29:00,
2013-01-28 16:30:00,56.5,47.3,30.13,ESE,113,3.4,4.3,71,0.00,,,0.00,WUHU216HW,2013-01-28 21:30:00,
2013-01-28 16:31:00,56.5,46.9,30.13,South,180,4.3,4.3,70,0.00,,,0.00,WUHU216HW,2013-01-28 21:31:00,
2013-01-28 16:33:00,56.3,46.7,30.13,SSE,158,4.5,4.5,70,0.00,,,0.00,WUHU216HW,2013-01-28 21:33:00,
2013-01-28 16:35:00,56.2,46.9,30.13,South,190,2.8,4.5,71,0.00,,,0.00,WUHU216HW,2013-01-28 21:35:00,
2013-01-28 16:37:00,56.3,47.1,30.13,South,180,3.8,4.5,71,0.00,,,0.00,WUHU216HW,2013-01-28 21:37:00,
2013-01-28 16:38:00,56.3,47.1,30.13,SE,135,1.8,4.5,71,0.00,,,0.00,WUHU216HW,2013-01-28 21:38:00,
2013-01-28 16:42:00,56.2,46.9,30.13,South,182,2.5,4.5,71,0.00,,,0.00,WUHU216HW,2013-01-28 21:42:00,
2013-01-28 16:44:00,56.2,46.9,30.13,SSE,158,4.0,4.5,71,0.00,,,0.00,WUHU216HW,2013-01-28 21:44:00,
2013-01-28 16:47:00,56.3,47.1,30.13,SSW,203,2.2,4.5,71,0.00,,,0.00,WUHU216HW,2013-01-28 21:47:00,
2013-01-28 16:48:00,56.3,47.1,30.13,SSW,192,2.0,4.5,71,0.00,,,0.00,WUHU216HW,2013-01-28 21:48:00,
2013-01-28 16:51:00,56.3,47.1,30.13,SSE,149,2.5,4.3,71,0.00,,,0.00,WUHU216HW,2013-01-28 21:51:00,
2013-01-28 16:52:00,56.2,46.9,30.13,ESE,113,4.0,4.3,71,0.00,,,0.00,WUHU216HW,2013-01-28 21:52:00,
2013-01-28 16:53:00,56.2,46.9,30.13,ESE,113,4.0,4.3,71,0.00,,,0.00,WUHU216HW,2013-01-28 21:53:00,
2013-01-28 16:56:00,56.0,46.7,30.13,South,180,3.4,5.1,71,0.00,,,0.00,WUHU216HW,2013-01-28 21:56:00,
2013-01-28 16:57:00,56.0,46.7,30.13,SSE,159,3.2,5.1,71,0.00,,,0.00,WUHU216HW,2013-01-28 21:57:00,
2013-01-28 16:58:00,56.0,46.7,30.13,SSE,159,3.2,5.1,71,0.00,,,0.00,WUHU216HW,2013-01-28 21:58:00,
2013-01-28 17:03:00,55.8,46.5,30.13,SE,124,5.3,5.4,71,0.00,,,0.00,WUHU216HW,2013-01-28 22:03:00,
2013-01-28 17:04:00,55.8,46.5,30.13,ESE,113,4.8,5.4,71,0.00,,,0.00,WUHU216HW,2013-01-28 22:04:00,
2013-01-28 17:08:00,55.8,46.5,30.13,SSE,163,2.2,5.4,71,0.00,,,0.00,WUHU216HW,2013-01-28 22:08:00,
2013-01-28 17:10:00,55.8,46.5,30.13,SSE,158,2.5,5.4,71,0.00,,,0.00,WUHU216HW,2013-01-28 22:10:00,
2013-01-28 17:13:00,55.6,46.5,30.13,SSE,149,4.4,5.4,71,0.00,,,0.00,WUHU216HW,2013-01-28 22:13:00,
2013-01-28 17:14:00,55.6,46.5,30.13,SSE,155,3.1,5.4,71,0.00,,,0.00,WUHU216HW,2013-01-28 22:14:00,
2013-01-28 17:15:00,55.6,46.5,30.13,SE,135,2.7,5.4,71,0.00,,,0.00,WUHU216HW,2013-01-28 22:15:00,
2013-01-28 17:16:00,55.6,46.5,30.13,South,180,3.8,5.4,71,0.00,,,0.00,WUHU216HW,2013-01-28 22:16:00,
2013-01-28 17:19:00,55.4,46.6,30.13,South,172,3.8,5.4,72,0.00,,,0.00,WUHU216HW,2013-01-28 22:19:00,
2013-01-28 17:20:00,55.4,46.6,30.13,SSE,158,4.0,5.4,72,0.00,,,0.00,WUHU216HW,2013-01-28 22:20:00,
2013-01-28 17:21:00,55.4,46.6,30.13,SE,135,5.1,5.4,72,0.00,,,0.00,WUHU216HW,2013-01-28 22:21:00,
2013-01-28 17:24:00,55.3,46.5,30.12,South,180,4.7,5.1,72,0.00,,,0.00,WUHU216HW,2013-01-28 22:24:00,
2013-01-28 17:25:00,55.3,46.5,30.13,SSE,161,4.1,5.1,72,0.00,,,0.00,WUHU216HW,2013-01-28 22:25:00,
2013-01-28 17:26:00,55.1,46.3,30.12,SE,142,2.7,5.1,72,0.00,,,0.00,WUHU216HW,2013-01-28 22:26:00,
2013-01-28 17:30:00,54.9,46.1,30.12,SSE,158,5.4,5.4,72,0.00,,,0.00,WUHU216HW,2013-01-28 22:30:00,
2013-01-28 17:31:00,54.9,46.1,30.12,South,176,4.7,5.4,72,0.00,,,0.00,WUHU216HW,2013-01-28 22:31:00,
2013-01-28 17:32:00,54.9,46.1,30.12,South,176,4.7,5.4,72,0.00,,,0.00,WUHU216HW,2013-01-28 22:32:00,
2013-01-28 17:35:00,54.5,45.7,30.13,South,176,2.3,5.4,72,0.00,,,0.00,WUHU216HW,2013-01-28 22:35:00,
2013-01-28 17:36:00,54.5,45.7,30.12,SSE,160,1.5,5.4,72,0.00,,,0.00,WUHU216HW,2013-01-28 22:36:00,
2013-01-28 17:37:00,54.4,45.6,30.13,SW,225,1.1,5.4,72,0.00,,,0.00,WUHU216HW,2013-01-28 22:37:00,
2013-01-28 17:40:00,54.2,45.7,30.13,SW,225,2.7,4.0,73,0.00,,,0.00,WUHU216HW,2013-01-28 22:40:00,
2013-01-28 17:41:00,54.2,45.7,30.13,SSW,203,2.7,2.7,73,0.00,,,0.00,WUHU216HW,2013-01-28 22:41:00,
2013-01-28 17:43:00,54.0,45.6,30.13,ESE,121,1.5,2.7,73,0.00,,,0.00,WUHU216HW,2013-01-28 22:43:00,
2013-01-28 17:46:00,53.8,45.4,30.13,SSW,194,2.0,2.9,73,0.00,,,0.00,WUHU216HW,2013-01-28 22:46:00,
2013-01-28 17:49:00,53.6,45.2,30.14,SE,144,2.8,3.4,73,0.00,,,0.00,WUHU216HW,2013-01-28 22:49:00,
2013-01-28 17:51:00,53.6,45.2,30.13,SE,135,1.8,3.4,73,0.00,,,0.00,WUHU216HW,2013-01-28 22:51:00,
2013-01-28 17:52:00,53.5,45.0,30.13,South,180,2.5,3.4,73,0.00,,,0.00,WUHU216HW,2013-01-28 22:52:00,
2013-01-28 17:54:00,53.5,45.0,30.13,SE,135,1.1,3.4,73,0.00,,,0.00,WUHU216HW,2013-01-28 22:54:00,
2013-01-28 17:56:00,53.3,44.8,30.13,SE,135,0.0,3.4,73,0.00,,,0.00,WUHU216HW,2013-01-28 22:56:00,
2013-01-28 17:57:00,53.3,44.8,30.13,SSW,203,0.4,3.4,73,0.00,,,0.00,WUHU216HW,2013-01-28 22:57:00,
2013-01-28 17:58:00,53.1,44.6,30.13,SSW,203,0.4,2.5,73,0.00,,,0.00,WUHU216HW,2013-01-28 22:58:00,
2013-01-28 17:59:00,53.1,44.6,30.13,SSW,203,1.1,2.5,73,0.00,,,0.00,WUHU216HW,2013-01-28 22:59:00,
2013-01-28 18:02:00,52.9,44.6,30.13,SE,146,1.7,2.0,73,0.00,,,0.00,WUHU216HW,2013-01-28 23:02:00,
2013-01-28 18:03:00,52.9,44.6,30.13,SSE,147,1.5,2.0,73,0.00,,,0.00,WUHU216HW,2013-01-28 23:03:00,
2013-01-28 18:05:00,52.7,44.4,30.13,SE,135,1.0,2.0,73,0.00,,,0.00,WUHU216HW,2013-01-28 23:05:00,
2013-01-28 18:08:00,52.4,44.4,30.14,SE,135,0.0,2.0,74,0.00,,,0.00,WUHU216HW,2013-01-28 23:08:00,
2013-01-28 18:09:00,52.4,44.4,30.14,SE,135,0.4,2.0,74,0.00,,,0.00,WUHU216HW,2013-01-28 23:09:00,
2013-01-28 18:10:00,52.2,44.2,30.14,SE,135,1.1,1.8,74,0.00,,,0.00,WUHU216HW,2013-01-28 23:10:00,
2013-01-28 18:13:00,52.0,44.0,30.13,SSE,158,2.5,2.5,74,0.00,,,0.00,WUHU216HW,2013-01-28 23:13:00,
2013-01-28 18:15:00,51.8,43.8,30.14,SSE,158,0.9,2.5,74,0.00,,,0.00,WUHU216HW,2013-01-28 23:15:00,
2013-01-28 18:19:00,51.5,43.8,30.14,South,180,2.5,2.5,75,0.00,,,0.00,WUHU216HW,2013-01-28 23:19:00,
2013-01-28 18:20:00,51.5,43.8,30.14,South,172,1.9,2.5,75,0.00,,,0.00,WUHU216HW,2013-01-28 23:20:00,
2013-01-28 18:24:00,51.1,43.5,30.14,SSE,158,2.0,2.5,75,0.00,,,0.00,WUHU216HW,2013-01-28 23:24:00,
2013-01-28 18:25:00,51.1,43.5,30.14,SSE,165,1.5,2.5,75,0.00,,,0.00,WUHU216HW,2013-01-28 23:25:00,
2013-01-28 18:26:00,51.1,43.5,30.14,South,180,2.5,2.5,75,0.00,,,0.00,WUHU216HW,2013-01-28 23:26:00,
2013-01-28 18:27:00,50.9,43.3,30.13,South,175,1.6,2.5,75,0.00,,,0.00,WUHU216HW,2013-01-28 23:27:00,
2013-01-28 18:29:00,50.9,43.7,30.13,South,180,1.1,2.5,76,0.00,,,0.00,WUHU216HW,2013-01-28 23:29:00,
2013-01-28 18:30:00,50.8,43.5,30.13,SSE,158,2.5,2.5,76,0.00,,,0.00,WUHU216HW,2013-01-28 23:30:00,
2013-01-28 18:32:00,50.8,43.5,30.13,ESE,113,3.4,3.4,76,0.00,,,0.00,WUHU216HW,2013-01-28 23:32:00,
2013-01-28 18:34:00,50.8,43.5,30.13,SE,144,2.2,3.4,76,0.00,,,0.00,WUHU216HW,2013-01-28 23:34:00,
2013-01-28 18:36:00,50.6,43.7,30.13,SSE,158,1.5,3.4,77,0.00,,,0.00,WUHU216HW,2013-01-28 23:36:00,
2013-01-28 18:37:00,50.6,43.7,30.13,East,90,1.6,3.4,77,0.00,,,0.00,WUHU216HW,2013-01-28 23:37:00,
2013-01-28 18:39:00,50.4,43.5,30.14,SE,125,1.8,3.4,77,0.00,,,0.00,WUHU216HW,2013-01-28 23:39:00,
2013-01-28 18:41:00,50.4,43.5,30.14,SE,131,1.4,3.4,77,0.00,,,0.00,WUHU216HW,2013-01-28 23:41:00,
2013-01-28 18:42:00,50.2,43.3,30.13,SSE,149,0.9,2.5,77,0.00,,,0.00,WUHU216HW,2013-01-28 23:42:00,
2013-01-28 18:43:00,50.2,43.3,30.14,SSE,158,4.0,4.0,77,0.00,,,0.00,WUHU216HW,2013-01-28 23:43:00,
2013-01-28 18:45:00,50.2,43.6,30.13,SSE,148,2.2,4.0,78,0.00,,,0.00,WUHU216HW,2013-01-28 23:45:00,
2013-01-28 18:47:00,50.0,43.4,30.14,SE,135,4.0,4.0,78,0.00,,,0.00,WUHU216HW,2013-01-28 23:47:00,
2013-01-28 18:48:00,50.0,43.4,30.13,SE,144,3.3,4.0,78,0.00,,,0.00,WUHU216HW,2013-01-28 23:48:00,
2013-01-28 18:50:00,50.0,43.4,30.13,South,180,2.5,4.0,78,0.00,,,0.00,WUHU216HW,2013-01-28 23:50:00,
2013-01-28 18:52:00,50.0,43.4,30.14,South,169,2.8,4.0,78,0.00,,,0.00,WUHU216HW,2013-01-28 23:52:00,
2013-01-28 18:55:00,50.0,43.4,30.14,SSW,203,1.8,4.0,78,0.00,,,0.00,WUHU216HW,2013-01-28 23:55:00,
2013-01-28 18:56:00,50.0,43.4,30.14,SE,135,2.5,4.0,78,0.00,,,0.00,WUHU216HW,2013-01-28 23:56:00,
2013-01-28 18:58:00,49.9,43.2,30.14,SE,135,2.5,2.9,78,0.00,,,0.00,WUHU216HW,2013-01-28 23:58:00,
2013-01-28 19:00:00,49.9,43.2,30.14,ESE,113,1.8,2.9,78,0.00,,,0.00,WUHU216HW,2013-01-29 00:00:00,
2013-01-28 19:02:00,49.9,43.6,30.14,ESE,122,1.5,2.9,79,0.00,,,0.00,WUHU216HW,2013-01-29 00:02:00,
2013-01-28 19:03:00,49.9,43.6,30.14,SSE,158,3.6,3.6,79,0.00,,,0.00,WUHU216HW,2013-01-29 00:03:00,
2013-01-28 19:07:00,49.7,43.4,30.14,SE,135,1.3,3.6,79,0.00,,,0.00,WUHU216HW,2013-01-29 00:07:00,
2013-01-28 19:09:00,49.7,43.4,30.14,East,90,2.7,3.6,79,0.00,,,0.00,WUHU216HW,2013-01-29 00:09:00,
2013-01-28 19:12:00,49.5,43.2,30.14,SSE,158,2.7,2.7,79,0.00,,,0.00,WUHU216HW,2013-01-29 00:12:00,
2013-01-28 19:14:00,49.3,43.0,30.14,SSE,158,2.6,2.7,79,0.00,,,0.00,WUHU216HW,2013-01-29 00:14:00,
2013-01-28 19:15:00,49.3,43.0,30.14,SE,142,1.9,2.7,79,0.00,,,0.00,WUHU216HW,2013-01-29 00:15:00,
2013-01-28 19:18:00,49.3,43.4,30.14,SE,135,1.1,2.7,80,0.00,,,0.00,WUHU216HW,2013-01-29 00:18:00,
2013-01-28 19:20:00,49.3,43.4,30.14,SSE,158,1.1,2.7,80,0.00,,,0.00,WUHU216HW,2013-01-29 00:20:00,
2013-01-28 19:21:00,49.3,43.4,30.14,ESE,113,1.3,2.7,80,0.00,,,0.00,WUHU216HW,2013-01-29 00:21:00,
2013-01-28 19:23:00,49.3,43.4,30.14,SSE,152,1.4,2.0,80,0.00,,,0.00,WUHU216HW,2013-01-29 00:23:00,
2013-01-28 19:26:00,49.1,43.2,30.14,SSW,196,1.5,2.0,80,0.00,,,0.00,WUHU216HW,2013-01-29 00:26:00,
2013-01-28 19:27:00,49.1,43.2,30.14,SSE,158,2.5,2.5,80,0.00,,,0.00,WUHU216HW,2013-01-29 00:27:00,
2013-01-28 19:29:00,49.1,43.2,30.14,SE,135,2.2,2.5,80,0.00,,,0.00,WUHU216HW,2013-01-29 00:29:00,
2013-01-28 19:32:00,49.0,43.0,30.14,SSE,158,2.9,3.4,80,0.00,,,0.00,WUHU216HW,2013-01-29 00:32:00,
2013-01-28 19:33:00,49.0,43.0,30.14,SSE,147,2.7,3.4,80,0.00,,,0.00,WUHU216HW,2013-01-29 00:33:00,
2013-01-28 19:35:00,49.0,43.0,30.14,SE,135,1.8,3.4,80,0.00,,,0.00,WUHU216HW,2013-01-29 00:35:00,
2013-01-28 19:37:00,48.8,42.8,30.14,SE,135,1.5,3.4,80,0.00,,,0.00,WUHU216HW,2013-01-29 00:37:00,
2013-01-28 19:38:00,48.8,42.8,30.15,SE,130,0.8,3.4,80,0.00,,,0.00,WUHU216HW,2013-01-29 00:38:00,
2013-01-28 19:39:00,48.8,42.8,30.14,SSE,158,1.6,3.4,80,0.00,,,0.00,WUHU216HW,2013-01-29 00:39:00,
2013-01-28 19:41:00,48.6,42.7,30.14,ESE,113,2.9,2.9,80,0.00,,,0.00,WUHU216HW,2013-01-29 00:41:00,
2013-01-28 19:42:00,48.6,42.7,30.14,SE,131,2.5,2.9,80,0.00,,,0.00,WUHU216HW,2013-01-29 00:42:00,
2013-01-28 19:43:00,48.6,43.0,30.14,ESE,113,2.5,2.9,81,0.00,,,0.00,WUHU216HW,2013-01-29 00:43:00,
2013-01-28 19:45:00,48.6,43.0,30.15,SSE,147,1.7,2.9,81,0.00,,,0.00,WUHU216HW,2013-01-29 00:45:00,
2013-01-28 19:46:00,48.6,43.0,30.14,SE,135,4.0,4.0,81,0.00,,,0.00,WUHU216HW,2013-01-29 00:46:00,
2013-01-28 19:48:00,48.6,43.0,30.14,SSW,203,2.5,4.0,81,0.00,,,0.00,WUHU216HW,2013-01-29 00:48:00,
2013-01-28 19:50:00,48.6,43.0,30.14,SE,135,1.6,4.0,81,0.00,,,0.00,WUHU216HW,2013-01-29 00:50:00,
2013-01-28 19:51:00,48.6,43.0,30.14,SE,135,2.5,4.0,81,0.00,,,0.00,WUHU216HW,2013-01-29 00:51:00,
2013-01-28 19:53:00,48.6,43.0,30.14,SSE,166,2.2,4.0,81,0.00,,,0.00,WUHU216HW,2013-01-29 00:53:00,
2013-01-28 19:55:00,48.6,43.0,30.14,SSE,158,2.2,4.0,81,0.00,,,0.00,WUHU216HW,2013-01-29 00:55:00,
2013-01-28 19:56:00,48.6,43.0,30.14,SSE,168,2.0,2.7,81,0.00,,,0.00,WUHU216HW,2013-01-29 00:56:00,
2013-01-28 19:59:00,48.6,43.3,30.14,SSE,158,2.3,3.8,82,0.00,,,0.00,WUHU216HW,2013-01-29 00:59:00,
2013-01-28 20:01:00,48.6,43.3,30.14,SE,144,1.5,3.8,82,0.00,,,0.00,WUHU216HW,2013-01-29 01:01:00,
2013-01-28 20:04:00,48.4,42.9,30.14,SSE,158,2.5,3.8,81,0.00,,,0.00,WUHU216HW,2013-01-29 01:04:00,
2013-01-28 20:06:00,48.4,43.1,30.14,ESE,113,4.3,4.3,82,0.00,,,0.00,WUHU216HW,2013-01-29 01:06:00,
2013-01-28 20:07:00,48.4,43.1,30.14,SE,140,3.7,4.3,82,0.00,,,0.00,WUHU216HW,2013-01-29 01:07:00,
2013-01-28 20:09:00,48.4,43.1,30.14,SSE,159,2.2,4.3,82,0.00,,,0.00,WUHU216HW,2013-01-29 01:09:00,
2013-01-28 20:10:00,48.4,43.1,30.14,SSE,159,2.2,4.3,82,0.00,,,0.00,WUHU216HW,2013-01-29 01:10:00,
2013-01-28 20:12:00,48.4,43.1,30.14,SSW,203,1.9,4.3,82,0.00,,,0.00,WUHU216HW,2013-01-29 01:12:00,
2013-01-28 20:13:00,48.4,43.1,30.14,South,180,2.7,4.3,82,0.00,,,0.00,WUHU216HW,2013-01-29 01:13:00,
2013-01-28 20:15:00,48.4,43.1,30.14,South,189,1.5,4.3,82,0.00,,,0.00,WUHU216HW,2013-01-29 01:15:00,
2013-01-28 20:18:00,48.4,43.1,30.14,South,180,2.5,2.7,82,0.00,,,0.00,WUHU216HW,2013-01-29 01:18:00,
2013-01-28 20:19:00,48.4,43.1,30.14,SSE,165,1.7,2.7,82,0.00,,,0.00,WUHU216HW,2013-01-29 01:19:00,
2013-01-28 20:20:00,48.4,43.1,30.14,South,180,1.1,2.7,82,0.00,,,0.00,WUHU216HW,2013-01-29 01:20:00,
2013-01-28 20:21:00,48.4,43.1,30.14,South,180,1.1,2.7,82,0.00,,,0.00,WUHU216HW,2013-01-29 01:21:00,
2013-01-28 20:23:00,48.4,43.1,30.14,South,170,2.9,3.1,82,0.00,,,0.00,WUHU216HW,2013-01-29 01:23:00,
2013-01-28 20:24:00,48.4,43.1,30.14,SSW,203,4.0,4.0,82,0.00,,,0.00,WUHU216HW,2013-01-29 01:24:00,
2013-01-28 20:26:00,48.4,43.1,30.14,SSE,158,2.0,4.0,82,0.00,,,0.00,WUHU216HW,2013-01-29 01:26:00,
2013-01-28 20:28:00,48.4,43.1,30.14,South,176,1.1,4.0,82,0.00,,,0.00,WUHU216HW,2013-01-29 01:28:00,
2013-01-28 20:29:00,48.4,43.1,30.14,SE,135,2.5,4.0,82,0.00,,,0.00,WUHU216HW,2013-01-29 01:29:00,
2013-01-28 20:31:00,48.4,43.1,30.14,SE,135,2.9,4.0,82,0.00,,,0.00,WUHU216HW,2013-01-29 01:31:00,
2013-01-28 20:33:00,48.2,42.7,30.14,South,180,1.3,4.0,81,0.00,,,0.00,WUHU216HW,2013-01-29 01:33:00,
2013-01-28 20:35:00,48.2,42.7,30.14,SSE,156,1.3,2.9,81,0.00,,,0.00,WUHU216HW,2013-01-29 01:35:00,
2013-01-28 20:36:00,48.2,42.7,30.14,South,180,1.1,2.9,81,0.00,,,0.00,WUHU216HW,2013-01-29 01:36:00,
2013-01-28 20:39:00,48.2,42.7,30.14,SSE,162,3.2,4.0,81,0.00,,,0.00,WUHU216HW,2013-01-29 01:39:00,
2013-01-28 20:41:00,48.4,43.1,30.14,South,180,3.4,4.0,82,0.00,,,0.00,WUHU216HW,2013-01-29 01:41:00,
2013-01-28 20:44:00,48.4,43.5,30.14,SSE,158,2.7,4.0,83,0.00,,,0.00,WUHU216HW,2013-01-29 01:44:00,
2013-01-28 20:46:00,48.4,43.5,30.14,SSE,163,2.3,4.0,83,0.00,,,0.00,WUHU216HW,2013-01-29 01:46:00,
2013-01-28 20:47:00,48.6,43.7,30.14,SE,135,1.8,3.8,83,0.00,,,0.00,WUHU216HW,2013-01-29 01:47:00,
2013-01-28 20:49:00,48.6,43.7,30.14,SE,135,1.8,3.4,83,0.00,,,0.00,WUHU216HW,2013-01-29 01:49:00,
2013-01-28 20:51:00,48.6,43.7,30.14,SSW,203,4.7,4.7,83,0.00,,,0.00,WUHU216HW,2013-01-29 01:51:00,
2013-01-28 20:52:00,48.6,43.7,30.14,South,189,3.3,4.7,83,0.00,,,0.00,WUHU216HW,2013-01-29 01:52:00,
2013-01-28 20:53:00,48.6,43.7,30.14,SE,135,2.7,4.7,83,0.00,,,0.00,WUHU216HW,2013-01-29 01:53:00,
2013-01-28 20:54:00,48.6,43.7,30.14,South,180,2.7,4.7,83,0.00,,,0.00,WUHU216HW,2013-01-29 01:54:00,
2013-01-28 20:56:00,48.6,43.7,30.14,SSE,158,2.0,4.7,83,0.00,,,0.00,WUHU216HW,2013-01-29 01:56:00,
2013-01-28 20:58:00,48.6,43.7,30.14,SE,135,2.7,4.7,83,0.00,,,0.00,WUHU216HW,2013-01-29 01:58:00,
2013-01-28 21:00:00,48.6,43.7,30.14,South,184,2.2,4.7,83,0.00,,,0.00,WUHU216HW,2013-01-29 02:00:00,
2013-01-28 21:02:00,48.6,43.7,30.14,South,180,2.2,2.7,83,0.00,,,0.00,WUHU216HW,2013-01-29 02:02:00,
2013-01-28 21:03:00,48.6,43.7,30.14,SSE,156,1.8,2.7,83,0.00,,,0.00,WUHU216HW,2013-01-29 02:03:00,
2013-01-28 21:04:00,48.6,43.7,30.14,ESE,113,1.2,2.7,83,0.00,,,0.00,WUHU216HW,2013-01-29 02:04:00,
2013-01-28 21:05:00,48.6,43.7,30.14,South,180,2.2,2.7,83,0.00,,,0.00,WUHU216HW,2013-01-29 02:05:00,
2013-01-28 21:07:00,48.6,43.7,30.14,SW,225,4.0,4.0,83,0.00,,,0.00,WUHU216HW,2013-01-29 02:07:00,
2013-01-28 21:08:00,48.6,43.7,30.14,SW,218,3.0,4.0,83,0.00,,,0.00,WUHU216HW,2013-01-29 02:08:00,
2013-01-28 21:09:00,48.6,43.7,30.14,SW,218,3.0,4.0,83,0.00,,,0.00,WUHU216HW,2013-01-29 02:09:00,
2013-01-28 21:11:00,48.6,43.7,30.14,ESE,119,1.8,4.0,83,0.00,,,0.00,WUHU216HW,2013-01-29 02:11:00,
2013-01-28 21:13:00,48.6,43.7,30.14,SE,135,2.5,4.0,83,0.00,,,0.00,WUHU216HW,2013-01-29 02:13:00,
2013-01-28 21:14:00,48.6,43.7,30.14,SSW,203,2.9,4.0,83,0.00,,,0.00,WUHU216HW,2013-01-29 02:14:00,
2013-01-28 21:15:00,48.6,43.7,30.14,South,174,2.6,4.0,83,0.00,,,0.00,WUHU216HW,2013-01-29 02:15:00,
2013-01-28 21:16:00,48.4,43.5,30.14,SE,135,2.0,4.0,83,0.00,,,0.00,WUHU216HW,2013-01-29 02:16:00,
2013-01-28 21:18:00,48.4,43.5,30.14,South,180,2.0,2.9,83,0.00,,,0.00,WUHU216HW,2013-01-29 02:18:00,
2013-01-28 21:19:00,48.4,43.5,30.14,SSE,158,2.9,2.9,83,0.00,,,0.00,WUHU216HW,2013-01-29 02:19:00,
2013-01-28 21:20:00,48.4,43.5,30.14,SSE,158,3.4,3.4,83,0.00,,,0.00,WUHU216HW,2013-01-29 02:20:00,
2013-01-28 21:22:00,48.2,42.9,30.14,SSE,158,1.1,3.4,82,0.00,,,0.00,WUHU216HW,2013-01-29 02:22:00,
2013-01-28 21:24:00,48.2,42.9,30.14,SE,135,1.1,3.4,82,0.00,,,0.00,WUHU216HW,2013-01-29 02:24:00,
2013-01-28 21:25:00,48.2,42.9,30.13,ESE,113,1.6,3.4,82,0.00,,,0.00,WUHU216HW,2013-01-29 02:25:00,
2013-01-28 21:27:00,48.1,42.8,30.13,ESE,113,1.8,3.4,82,0.00,,,0.00,WUHU216HW,2013-01-29 02:27:00,
2013-01-28 21:29:00,48.1,42.8,30.13,SE,129,2.7,3.4,82,0.00,,,0.00,WUHU216HW,2013-01-29 02:29:00,
2013-01-28 21:30:00,47.9,42.7,30.14,SSE,158,2.7,3.4,82,0.00,,,0.00,WUHU216HW,2013-01-29 02:30:00,
2013-01-28 21:32:00,47.9,42.7,30.14,SSE,158,1.3,3.4,82,0.00,,,0.00,WUHU216HW,2013-01-29 02:32:00,
2013-01-28 21:34:00,47.9,42.7,30.14,ESE,113,1.3,3.4,82,0.00,,,0.00,WUHU216HW,2013-01-29 02:34:00,
2013-01-28 21:35:00,47.9,42.7,30.13,ESE,123,1.2,3.4,82,0.00,,,0.00,WUHU216HW,2013-01-29 02:35:00,
2013-01-28 21:36:00,47.7,42.5,30.13,SE,135,1.8,3.4,82,0.00,,,0.00,WUHU216HW,2013-01-29 02:36:00,
2013-01-28 21:37:00,47.7,42.5,30.13,ESE,113,1.8,3.4,82,0.00,,,0.00,WUHU216HW,2013-01-29 02:37:00,
2013-01-28 21:39:00,47.7,42.5,30.13,South,180,1.1,2.7,82,0.00,,,0.00,WUHU216HW,2013-01-29 02:39:00,
2013-01-28 21:41:00,47.5,42.6,30.13,SE,144,1.4,1.8,83,0.00,,,0.00,WUHU216HW,2013-01-29 02:41:00,
2013-01-28 21:43:00,47.5,42.6,30.13,SSE,148,0.6,1.8,83,0.00,,,0.00,WUHU216HW,2013-01-29 02:43:00,
2013-01-28 21:45:00,47.3,42.5,30.13,SE,135,0.7,1.8,83,0.00,,,0.00,WUHU216HW,2013-01-29 02:45:00,
2013-01-28 21:46:00,47.3,42.5,30.13,South,180,1.6,1.8,83,0.00,,,0.00,WUHU216HW,2013-01-29 02:46:00,
2013-01-28 21:47:00,47.3,42.5,30.13,South,172,1.3,1.6,83,0.00,,,0.00,WUHU216HW,2013-01-29 02:47:00,
2013-01-28 21:48:00,47.2,42.3,30.13,South,171,0.6,1.6,83,0.00,,,0.00,WUHU216HW,2013-01-29 02:48:00,
2013-01-28 21:50:00,47.2,42.3,30.13,SW,225,0.6,1.6,83,0.00,,,0.00,WUHU216HW,2013-01-29 02:50:00,
2013-01-28 21:51:00,47.2,42.3,30.13,SW,225,0.4,1.6,83,0.00,,,0.00,WUHU216HW,2013-01-29 02:51:00,
2013-01-28 21:53:00,47.2,42.3,30.13,SW,225,0.0,1.6,83,0.00,,,0.00,WUHU216HW,2013-01-29 02:53:00,
2013-01-28 21:55:00,47.0,42.1,30.13,SW,225,0.7,1.6,83,0.00,,,0.00,WUHU216HW,2013-01-29 02:55:00,
2013-01-28 21:56:00,46.8,42.0,30.13,SSE,158,2.2,2.2,83,0.00,,,0.00,WUHU216HW,2013-01-29 02:56:00,
2013-01-28 21:58:00,46.8,42.0,30.13,South,180,1.1,2.2,83,0.00,,,0.00,WUHU216HW,2013-01-29 02:58:00,
2013-01-28 21:59:00,46.6,41.8,30.13,South,180,1.1,2.2,83,0.00,,,0.00,WUHU216HW,2013-01-29 02:59:00,
2013-01-28 22:01:00,46.6,42.0,30.13,SSE,158,1.1,2.2,84,0.00,,,0.00,WUHU216HW,2013-01-29 03:01:00,
2013-01-28 22:03:00,46.6,42.0,30.13,SE,135,1.1,2.2,84,0.00,,,0.00,WUHU216HW,2013-01-29 03:03:00,
2013-01-28 22:05:00,46.4,42.0,30.13,SSE,158,1.1,2.2,84,0.00,,,0.00,WUHU216HW,2013-01-29 03:05:00,
2013-01-28 22:07:00,46.4,42.0,30.13,SSE,158,0.4,1.1,84,0.00,,,0.00,WUHU216HW,2013-01-29 03:07:00,
2013-01-28 22:09:00,46.4,42.0,30.13,SSE,158,0.0,1.1,84,0.00,,,0.00,WUHU216HW,2013-01-29 03:09:00,
2013-01-28 22:10:00,46.4,42.0,30.13,South,180,0.7,1.1,84,0.00,,,0.00,WUHU216HW,2013-01-29 03:10:00,
2013-01-28 22:12:00,46.4,42.0,30.13,South,176,0.6,1.1,84,0.00,,,0.00,WUHU216HW,2013-01-29 03:12:00,
2013-01-28 22:14:00,46.3,42.0,30.13,SSE,147,1.0,1.1,85,0.00,,,0.00,WUHU216HW,2013-01-29 03:14:00,
2013-01-28 22:15:00,46.3,42.0,30.13,ESE,113,1.3,1.3,85,0.00,,,0.00,WUHU216HW,2013-01-29 03:15:00,
2013-01-28 22:16:00,46.3,42.0,30.13,SE,133,1.2,1.3,85,0.00,,,0.00,WUHU216HW,2013-01-29 03:16:00,
2013-01-28 22:18:00,46.3,42.0,30.13,SE,125,1.0,1.3,85,0.00,,,0.00,WUHU216HW,2013-01-29 03:18:00,
2013-01-28 22:20:00,46.3,42.0,30.13,SE,135,0.6,1.3,85,0.00,,,0.00,WUHU216HW,2013-01-29 03:20:00,
2013-01-28 22:21:00,46.3,42.0,30.13,SE,135,0.4,1.3,85,0.00,,,0.00,WUHU216HW,2013-01-29 03:21:00,
2013-01-28 22:23:00,46.1,41.9,30.12,SE,135,0.0,1.3,85,0.00,,,0.00,WUHU216HW,2013-01-29 03:23:00,
2013-01-28 22:26:00,46.1,41.9,30.12,SE,135,1.1,1.1,85,0.00,,,0.00,WUHU216HW,2013-01-29 03:26:00,
2013-01-28 22:27:00,46.1,41.9,30.12,SE,135,0.9,1.1,85,0.00,,,0.00,WUHU216HW,2013-01-29 03:27:00,
2013-01-28 22:28:00,46.1,41.9,30.12,SE,135,0.9,1.1,85,0.00,,,0.00,WUHU216HW,2013-01-29 03:28:00,
2013-01-28 22:32:00,45.7,41.5,30.12,SE,135,0.8,1.1,85,0.00,,,0.00,WUHU216HW,2013-01-29 03:32:00,
2013-01-28 22:34:00,45.7,41.5,30.12,SE,135,1.6,1.6,85,0.00,,,0.00,WUHU216HW,2013-01-29 03:34:00,
2013-01-28 22:38:00,45.5,41.3,30.12,ESE,113,1.1,1.6,85,0.00,,,0.00,WUHU216HW,2013-01-29 03:38:00,
2013-01-28 22:39:00,45.5,41.3,30.12,ESE,123,1.0,1.6,85,0.00,,,0.00,WUHU216HW,2013-01-29 03:39:00,
2013-01-28 22:44:00,45.2,41.0,30.12,SE,135,0.0,1.3,85,0.00,,,0.00,WUHU216HW,2013-01-29 03:44:00,
2013-01-28 22:45:00,45.2,41.0,30.12,SE,135,0.0,1.1,85,0.00,,,0.00,WUHU216HW,2013-01-29 03:45:00,
2013-01-28 22:49:00,45.2,41.0,30.12,SE,135,0.9,1.1,85,0.00,,,0.00,WUHU216HW,2013-01-29 03:49:00,
2013-01-28 22:50:00,45.2,41.0,30.12,SE,135,1.1,1.1,85,0.00,,,0.00,WUHU216HW,2013-01-29 03:50:00,
2013-01-28 22:51:00,45.0,40.8,30.12,SE,135,1.0,1.1,85,0.00,,,0.00,WUHU216HW,2013-01-29 03:51:00,
2013-01-28 22:54:00,45.0,41.0,30.12,ESE,122,1.5,1.8,86,0.00,,,0.00,WUHU216HW,2013-01-29 03:54:00,
2013-01-28 22:55:00,45.0,41.0,30.12,SE,125,1.2,1.8,86,0.00,,,0.00,WUHU216HW,2013-01-29 03:55:00,
2013-01-28 22:56:00,45.0,41.0,30.12,SE,135,1.1,1.8,86,0.00,,,0.00,WUHU216HW,2013-01-29 03:56:00,
2013-01-28 22:57:00,45.0,41.0,30.12,SE,135,1.1,1.8,86,0.00,,,0.00,WUHU216HW,2013-01-29 03:57:00,
2013-01-28 23:00:00,44.8,40.9,30.13,SSE,158,0.9,1.8,86,0.00,,,0.00,WUHU216HW,2013-01-29 04:00:00,
2013-01-28 23:01:00,44.8,40.9,30.13,SE,135,1.8,1.8,86,0.00,,,0.00,WUHU216HW,2013-01-29 04:01:00,
2013-01-28 23:02:00,44.8,40.9,30.13,SE,128,1.3,1.8,86,0.00,,,0.00,WUHU216HW,2013-01-29 04:02:00,
2013-01-28 23:05:00,44.8,40.9,30.13,SE,135,1.3,1.8,86,0.00,,,0.00,WUHU216HW,2013-01-29 04:05:00,
2013-01-28 23:06:00,44.8,40.9,30.13,SE,135,1.2,1.8,86,0.00,,,0.00,WUHU216HW,2013-01-29 04:06:00,
2013-01-28 23:07:00,44.8,40.9,30.13,SE,135,1.5,1.8,86,0.00,,,0.00,WUHU216HW,2013-01-29 04:07:00,
2013-01-28 23:11:00,44.6,41.1,30.13,SE,135,1.8,1.8,87,0.00,,,0.00,WUHU216HW,2013-01-29 04:11:00,
2013-01-28 23:12:00,44.6,41.1,30.13,SE,135,1.3,1.8,87,0.00,,,0.00,WUHU216HW,2013-01-29 04:12:00,
2013-01-28 23:13:00,44.6,41.1,30.13,SE,135,0.7,1.8,87,0.00,,,0.00,WUHU216HW,2013-01-29 04:13:00,
2013-01-28 23:16:00,44.6,41.3,30.13,ESE,113,2.0,2.0,88,0.00,,,0.00,WUHU216HW,2013-01-29 04:16:00,
2013-01-28 23:18:00,44.8,41.5,30.13,ESE,113,1.5,2.0,88,0.00,,,0.00,WUHU216HW,2013-01-29 04:18:00,
2013-01-28 23:19:00,44.8,41.5,30.13,ESE,113,1.3,2.0,88,0.00,,,0.00,WUHU216HW,2013-01-29 04:19:00,
2013-01-28 23:21:00,44.8,41.2,30.13,ESE,113,1.2,2.0,87,0.00,,,0.00,WUHU216HW,2013-01-29 04:21:00,
2013-01-28 23:23:00,44.8,41.2,30.13,SE,135,1.1,2.0,87,0.00,,,0.00,WUHU216HW,2013-01-29 04:23:00,
2013-01-28 23:24:00,44.8,41.2,30.13,ESE,113,1.3,2.0,87,0.00,,,0.00,WUHU216HW,2013-01-29 04:24:00,
2013-01-28 23:26:00,44.8,41.5,30.13,ESE,113,1.6,1.8,88,0.00,,,0.00,WUHU216HW,2013-01-29 04:26:00,
2013-01-28 23:28:00,44.8,41.5,30.13,ESE,113,0.9,1.6,88,0.00,,,0.00,WUHU216HW,2013-01-29 04:28:00,
2013-01-28 23:29:00,44.8,41.5,30.13,ESE,113,0.4,1.6,88,0.00,,,0.00,WUHU216HW,2013-01-29 04:29:00,
2013-01-28 23:31:00,44.8,41.5,30.13,ESE,113,0.0,1.6,88,0.00,,,0.00,WUHU216HW,2013-01-29 04:31:00,
2013-01-28 23:33:00,44.8,41.5,30.13,ESE,113,0.0,1.6,88,0.00,,,0.00,WUHU216HW,2013-01-29 04:33:00,
2013-01-28 23:34:00,44.8,41.5,30.13,ESE,113,0.0,1.6,88,0.00,,,0.00,WUHU216HW,2013-01-29 04:34:00,
2013-01-28 23:36:00,44.6,41.1,30.13,SE,135,0.0,0.7,87,0.00,,,0.00,WUHU216HW,2013-01-29 04:36:00,
2013-01-28 23:38:00,44.6,41.1,30.13,ESE,113,0.9,0.9,87,0.00,,,0.00,WUHU216HW,2013-01-29 04:38:00,
2013-01-28 23:40:00,44.6,41.3,30.13,SE,126,0.9,1.1,88,0.00,,,0.00,WUHU216HW,2013-01-29 04:40:00,
2013-01-28 23:41:00,44.6,41.1,30.13,ESE,113,1.1,1.1,87,0.00,,,0.00,WUHU216HW,2013-01-29 04:41:00,
2013-01-28 23:42:00,44.5,40.9,30.13,SE,135,1.1,1.1,87,0.00,,,0.00,WUHU216HW,2013-01-29 04:42:00,
2013-01-28 23:43:00,44.6,41.1,30.13,SE,125,1.0,1.1,87,0.00,,,0.00,WUHU216HW,2013-01-29 04:43:00,
2013-01-28 23:45:00,44.5,41.1,30.13,ESE,113,1.2,1.3,88,0.00,,,0.00,WUHU216HW,2013-01-29 04:45:00,
2013-01-28 23:47:00,44.5,41.1,30.13,SE,135,0.9,1.3,88,0.00,,,0.00,WUHU216HW,2013-01-29 04:47:00,
2013-01-28 23:48:00,44.5,41.1,30.13,SE,135,1.1,1.3,88,0.00,,,0.00,WUHU216HW,2013-01-29 04:48:00,
2013-01-28 23:50:00,44.3,41.0,30.13,ESE,113,0.9,1.3,88,0.00,,,0.00,WUHU216HW,2013-01-29 04:50:00,
2013-01-28 23:52:00,44.3,40.7,30.13,SE,128,0.6,1.3,87,0.00,,,0.00,WUHU216HW,2013-01-29 04:52:00,
2013-01-28 23:53:00,44.3,40.7,30.13,ESE,113,0.4,1.3,87,0.00,,,0.00,WUHU216HW,2013-01-29 04:53:00,
2013-01-28 23:54:00,44.3,40.7,30.13,ESE,113,0.7,1.1,87,0.00,,,0.00,WUHU216HW,2013-01-29 04:54:00,
2013-01-28 23:55:00,44.3,40.7,30.13,ESE,113,0.4,1.1,87,0.00,,,0.00,WUHU216HW,2013-01-29 04:55:00,
2013-01-28 23:58:00,44.3,40.7,30.13,ESE,113,1.6,1.6,87,0.00,,,0.00,WUHU216HW,2013-01-29 04:58:00,